Wetterdaten: Mittwoch, 19.10.2016
Datum Zeit Temp. A. Feuchte A. Luftdruck Regen Wind Richtung Richtung Sonnenschein ET UV Solar Taupunkt Windchill Windben Empfang
19.10.2016 00:00 10,7 C 97 % 1020,5 hPa 0,0 l/m 3,3 km/h (1 Bft) SW 214 0 min 0,000 mm 0,0 UV-I 0 W/m 10,2 C 10,7 C 6,4 km/h (2 Bft) 96,23 %
19.10.2016 00:02 10,6 C 97 % 1020,5 hPa 0,0 l/m 2,7 km/h (1 Bft) S-SW 213 0 min 0,000 mm 0,0 UV-I 0 W/m 10,1 C 10,6 C 4,8 km/h (1 Bft) 95,24 %
19.10.2016 00:04 10,6 C 97 % 1020,5 hPa 0,0 l/m 2,5 km/h (1 Bft) S 186 0 min 0,000 mm 0,0 UV-I 0 W/m 10,1 C 10,6 C 6,4 km/h (2 Bft) 98,00 %
19.10.2016 00:06 10,6 C 97 % 1020,4 hPa 0,0 l/m 2,3 km/h (1 Bft) S 186 0 min 0,000 mm 0,0 UV-I 0 W/m 10,1 C 10,6 C 3,2 km/h (1 Bft) 97,87 %
19.10.2016 00:08 10,6 C 97 % 1020,4 hPa 0,0 l/m 2,4 km/h (1 Bft) S 182 0 min 0,000 mm 0,0 UV-I 0 W/m 10,1 C 10,6 C 4,8 km/h (1 Bft) 97,37 %
19.10.2016 00:10 10,6 C 98 % 1020,4 hPa 0,0 l/m 3,9 km/h (1 Bft) S 187 0 min 0,000 mm 0,0 UV-I 0 W/m 10,3 C 10,6 C 6,4 km/h (2 Bft) 96,00 %
19.10.2016 00:12 10,6 C 98 % 1020,4 hPa 0,0 l/m 3,8 km/h (1 Bft) S-SW 213 0 min 0,000 mm 0,0 UV-I 0 W/m 10,3 C 10,6 C 6,4 km/h (2 Bft) 98,11 %
19.10.2016 00:14 10,6 C 98 % 1020,4 hPa 0,0 l/m 4,0 km/h (1 Bft) S-SW 209 0 min 0,000 mm 0,0 UV-I 0 W/m 10,3 C 10,6 C 4,8 km/h (1 Bft) 95,12 %
19.10.2016 00:16 10,6 C 97 % 1020,4 hPa 0,0 l/m 4,1 km/h (1 Bft) S 173 0 min 0,000 mm 0,0 UV-I 0 W/m 10,1 C 10,6 C 8,0 km/h (2 Bft) 100,00 %
19.10.2016 00:18 10,6 C 97 % 1020,3 hPa 0,0 l/m 4,3 km/h (1 Bft) SW 236 0 min 0,000 mm 0,0 UV-I 0 W/m 10,1 C 10,6 C 8,0 km/h (2 Bft) 95,74 %
19.10.2016 00:20 10,7 C 97 % 1020,3 hPa 0,0 l/m 3,5 km/h (1 Bft) SW 218 0 min 0,000 mm 0,0 UV-I 0 W/m 10,2 C 10,7 C 4,8 km/h (1 Bft) 98,00 %
19.10.2016 00:22 10,7 C 97 % 1020,3 hPa 0,0 l/m 3,2 km/h (1 Bft) SW 214 0 min 0,000 mm 0,0 UV-I 0 W/m 10,2 C 10,7 C 6,4 km/h (2 Bft) 97,87 %
19.10.2016 00:24 10,6 C 97 % 1020,3 hPa 0,0 l/m 4,2 km/h (1 Bft) S 190 0 min 0,000 mm 0,0 UV-I 0 W/m 10,1 C 10,6 C 6,4 km/h (2 Bft) 97,37 %
19.10.2016 00:26 10,7 C 97 % 1020,3 hPa 0,0 l/m 2,8 km/h (1 Bft) S-SW 209 0 min 0,000 mm 0,0 UV-I 0 W/m 10,2 C 10,7 C 4,8 km/h (1 Bft) 98,11 %
19.10.2016 00:28 10,7 C 97 % 1020,3 hPa 0,0 l/m 3,7 km/h (1 Bft) SW 226 0 min 0,000 mm 0,0 UV-I 0 W/m 10,2 C 10,7 C 6,4 km/h (2 Bft) 95,74 %
19.10.2016 00:30 10,7 C 97 % 1020,3 hPa 0,0 l/m 3,9 km/h (1 Bft) W-SW 247 0 min 0,000 mm 0,0 UV-I 0 W/m 10,2 C 10,7 C 6,4 km/h (2 Bft) 100,00 %
19.10.2016 00:32 10,7 C 97 % 1020,3 hPa 0,0 l/m 4,0 km/h (1 Bft) SW 222 0 min 0,000 mm 0,0 UV-I 0 W/m 10,2 C 10,7 C 6,4 km/h (2 Bft) 95,92 %
19.10.2016 00:34 10,7 C 97 % 1020,3 hPa 0,0 l/m 3,3 km/h (1 Bft) SW 222 0 min 0,000 mm 0,0 UV-I 0 W/m 10,2 C 10,7 C 4,8 km/h (1 Bft) 100,00 %
19.10.2016 00:36 10,6 C 97 % 1020,3 hPa 0,0 l/m 3,1 km/h (1 Bft) SW 222 0 min 0,000 mm 0,0 UV-I 0 W/m 10,1 C 10,6 C 4,8 km/h (1 Bft) 100,00 %
19.10.2016 00:38 10,6 C 97 % 1020,3 hPa 0,0 l/m 3,8 km/h (1 Bft) SW 222 0 min 0,000 mm 0,0 UV-I 0 W/m 10,1 C 10,6 C 4,8 km/h (1 Bft) 100,00 %
19.10.2016 00:40 10,6 C 97 % 1020,2 hPa 0,0 l/m 3,5 km/h (1 Bft) SW 222 0 min 0,000 mm 0,0 UV-I 0 W/m 10,1 C 10,6 C 6,4 km/h (2 Bft) 100,00 %
19.10.2016 00:42 10,6 C 97 % 1020,2 hPa 0,0 l/m 3,2 km/h (1 Bft) SW 222 0 min 0,000 mm 0,0 UV-I 0 W/m 10,1 C 10,6 C 4,8 km/h (1 Bft) 98,00 %
19.10.2016 00:44 10,6 C 97 % 1020,2 hPa 0,0 l/m 3,3 km/h (1 Bft) SW 222 0 min 0,000 mm 0,0 UV-I 0 W/m 10,1 C 10,6 C 4,8 km/h (1 Bft) 100,00 %
19.10.2016 00:46 10,7 C 97 % 1020,2 hPa 0,0 l/m 2,2 km/h (1 Bft) SW 222 0 min 0,000 mm 0,0 UV-I 0 W/m 10,2 C 10,7 C 4,8 km/h (1 Bft) 100,00 %
19.10.2016 00:48 10,7 C 97 % 1020,1 hPa 0,0 l/m 3,1 km/h (1 Bft) SW 222 0 min 0,000 mm 0,0 UV-I 0 W/m 10,2 C 10,7 C 4,8 km/h (1 Bft) 100,00 %
19.10.2016 00:50 10,7 C 97 % 1020,1 hPa 0,0 l/m 2,9 km/h (1 Bft) SW 222 0 min 0,000 mm 0,0 UV-I 0 W/m 10,2 C 10,7 C 4,8 km/h (1 Bft) 100,00 %
19.10.2016 00:52 10,7 C 97 % 1020,1 hPa 0,0 l/m 3,1 km/h (1 Bft) SW 222 0 min 0,000 mm 0,0 UV-I 0 W/m 10,2 C 10,7 C 4,8 km/h (1 Bft) 100,00 %
19.10.2016 00:54 10,7 C 97 % 1020,1 hPa 0,0 l/m 3,2 km/h (1 Bft) SW 222 0 min 0,000 mm 0,0 UV-I 0 W/m 10,2 C 10,7 C 4,8 km/h (1 Bft) 100,00 %
19.10.2016 00:56 10,7 C 97 % 1020,1 hPa 0,0 l/m 3,0 km/h (1 Bft) SW 222 0 min 0,000 mm 0,0 UV-I 0 W/m 10,2 C 10,7 C 4,8 km/h (1 Bft) 97,87 %
19.10.2016 00:58 10,7 C 97 % 1020,0 hPa 0,0 l/m 2,7 km/h (1 Bft) SW 222 0 min 0,000 mm 0,0 UV-I 0 W/m 10,2 C 10,7 C 4,8 km/h (1 Bft) 100,00 %
19.10.2016 01:00 10,7 C 97 % 1020,1 hPa 0,0 l/m 2,8 km/h (1 Bft) SW 222 0 min 0,000 mm 0,0 UV-I 0 W/m 10,2 C 10,7 C 4,8 km/h (1 Bft) 100,00 %
19.10.2016 01:02 10,6 C 97 % 1020,0 hPa 0,0 l/m 2,3 km/h (1 Bft) SW 222 0 min 0,000 mm 0,0 UV-I 0 W/m 10,1 C 10,6 C 4,8 km/h (1 Bft) 100,00 %
19.10.2016 01:04 10,7 C 97 % 1020,0 hPa 0,0 l/m 2,7 km/h (1 Bft) SW 222 0 min 0,000 mm 0,0 UV-I 0 W/m 10,2 C 10,7 C 4,8 km/h (1 Bft) 97,87 %
19.10.2016 01:06 10,6 C 97 % 1020,0 hPa 0,0 l/m 3,2 km/h (1 Bft) SW 222 0 min 0,000 mm 0,0 UV-I 0 W/m 10,1 C 10,6 C 4,8 km/h (1 Bft) 100,00 %
19.10.2016 01:08 10,7 C 97 % 1020,0 hPa 0,0 l/m 3,1 km/h (1 Bft) SW 222 0 min 0,000 mm 0,0 UV-I 0 W/m 10,2 C 10,7 C 4,8 km/h (1 Bft) 100,00 %
19.10.2016 01:10 10,6 C 97 % 1020,0 hPa 0,0 l/m 3,5 km/h (1 Bft) SW 222 0 min 0,000 mm 0,0 UV-I 0 W/m 10,1 C 10,6 C 4,8 km/h (1 Bft) 98,00 %
19.10.2016 01:12 10,6 C 97 % 1020,0 hPa 0,0 l/m 3,2 km/h (1 Bft) SW 222 0 min 0,000 mm 0,0 UV-I 0 W/m 10,1 C 10,6 C 4,8 km/h (1 Bft) 100,00 %
19.10.2016 01:14 10,6 C 97 % 1020,0 hPa 0,0 l/m 1,8 km/h (1 Bft) SW 222 0 min 0,000 mm 0,0 UV-I 0 W/m 10,1 C 10,6 C 3,2 km/h (1 Bft) 100,00 %
19.10.2016 01:16 10,6 C 97 % 1020,0 hPa 0,0 l/m 2,5 km/h (1 Bft) SW 222 0 min 0,000 mm 0,0 UV-I 0 W/m 10,1 C 10,6 C 4,8 km/h (1 Bft) 100,00 %
19.10.2016 01:18 10,6 C 97 % 1020,0 hPa 0,0 l/m 3,0 km/h (1 Bft) SW 222 0 min 0,000 mm 0,0 UV-I 0 W/m 10,1 C 10,6 C 4,8 km/h (1 Bft) 97,87 %
19.10.2016 01:20 10,6 C 97 % 1020,0 hPa 0,0 l/m 3,2 km/h (1 Bft) SW 222 0 min 0,000 mm 0,0 UV-I 0 W/m 10,1 C 10,6 C 4,8 km/h (1 Bft) 97,92 %
19.10.2016 01:22 10,6 C 97 % 1020,0 hPa 0,0 l/m 3,4 km/h (1 Bft) SW 222 0 min 0,000 mm 0,0 UV-I 0 W/m 10,1 C 10,6 C 6,4 km/h (2 Bft) 97,87 %
19.10.2016 01:24 10,6 C 97 % 1020,0 hPa 0,0 l/m 3,1 km/h (1 Bft) SW 222 0 min 0,000 mm 0,0 UV-I 0 W/m 10,1 C 10,6 C 4,8 km/h (1 Bft) 100,00 %
19.10.2016 01:26 10,6 C 97 % 1020,0 hPa 0,0 l/m 3,8 km/h (1 Bft) SW 220 0 min 0,000 mm 0,0 UV-I 0 W/m 10,1 C 10,6 C 4,8 km/h (1 Bft) 100,00 %
19.10.2016 01:28 10,6 C 97 % 1020,0 hPa 0,0 l/m 4,2 km/h (1 Bft) SW 220 0 min 0,000 mm 0,0 UV-I 0 W/m 10,1 C 10,6 C 6,4 km/h (2 Bft) 100,00 %
19.10.2016 01:30 10,6 C 97 % 1019,9 hPa 0,0 l/m 4,4 km/h (1 Bft) SW 220 0 min 0,000 mm 0,0 UV-I 0 W/m 10,1 C 10,6 C 6,4 km/h (2 Bft) 100,00 %
19.10.2016 01:32 10,6 C 97 % 1019,9 hPa 0,0 l/m 4,8 km/h (1 Bft) S-SW 212 0 min 0,000 mm 0,0 UV-I 0 W/m 10,1 C 10,6 C 8,0 km/h (2 Bft) 100,00 %
19.10.2016 01:34 10,6 C 97 % 1019,9 hPa 0,0 l/m 5,4 km/h (1 Bft) S-SW 213 0 min 0,000 mm 0,0 UV-I 0 W/m 10,1 C 10,6 C 8,0 km/h (2 Bft) 98,00 %
19.10.2016 01:36 10,6 C 97 % 1019,9 hPa 0,0 l/m 6,0 km/h (2 Bft) S-SW 211 0 min 0,000 mm 0,0 UV-I 0 W/m 10,1 C 10,6 C 8,0 km/h (2 Bft) 100,00 %
19.10.2016 01:38 10,6 C 97 % 1019,9 hPa 0,0 l/m 4,9 km/h (1 Bft) S-SW 213 0 min 0,000 mm 0,0 UV-I 0 W/m 10,1 C 10,6 C 6,4 km/h (2 Bft) 100,00 %
19.10.2016 01:40 10,6 C 97 % 1019,9 hPa 0,0 l/m 4,0 km/h (1 Bft) SW 217 0 min 0,000 mm 0,0 UV-I 0 W/m 10,1 C 10,6 C 6,4 km/h (2 Bft) 100,00 %
19.10.2016 01:42 10,6 C 97 % 1019,9 hPa 0,0 l/m 3,4 km/h (1 Bft) SW 217 0 min 0,000 mm 0,0 UV-I 0 W/m 10,1 C 10,6 C 4,8 km/h (1 Bft) 100,00 %
19.10.2016 01:44 10,6 C 97 % 1019,9 hPa 0,0 l/m 3,1 km/h (1 Bft) SW 217 0 min 0,000 mm 0,0 UV-I 0 W/m 10,1 C 10,6 C 4,8 km/h (1 Bft) 100,00 %
19.10.2016 01:46 10,6 C 97 % 1019,9 hPa 0,0 l/m 4,0 km/h (1 Bft) SW 217 0 min 0,000 mm 0,0 UV-I 0 W/m 10,1 C 10,6 C 6,4 km/h (2 Bft) 100,00 %
19.10.2016 01:48 10,6 C 97 % 1019,9 hPa 0,0 l/m 4,1 km/h (1 Bft) SW 218 0 min 0,000 mm 0,0 UV-I 0 W/m 10,1 C 10,6 C 6,4 km/h (2 Bft) 100,00 %
19.10.2016 01:50 10,5 C 97 % 1019,8 hPa 0,0 l/m 4,2 km/h (1 Bft) SW 218 0 min 0,000 mm 0,0 UV-I 0 W/m 10,0 C 10,5 C 4,8 km/h (1 Bft) 98,41 %
19.10.2016 01:52 10,5 C 97 % 1019,8 hPa 0,0 l/m 2,9 km/h (1 Bft) SW 218 0 min 0,000 mm 0,0 UV-I 0 W/m 10,0 C 10,5 C 4,8 km/h (1 Bft) 100,00 %
19.10.2016 01:54 10,4 C 97 % 1019,8 hPa 0,0 l/m 2,4 km/h (1 Bft) SW 218 0 min 0,000 mm 0,0 UV-I 0 W/m 9,9 C 10,4 C 4,8 km/h (1 Bft) 97,37 %
19.10.2016 01:56 10,4 C 97 % 1019,8 hPa 0,0 l/m 3,7 km/h (1 Bft) SW 218 0 min 0,000 mm 0,0 UV-I 0 W/m 9,9 C 10,4 C 6,4 km/h (2 Bft) 100,00 %
19.10.2016 01:58 10,4 C 97 % 1019,7 hPa 0,0 l/m 4,7 km/h (1 Bft) SW 218 0 min 0,000 mm 0,0 UV-I 0 W/m 9,9 C 10,4 C 6,4 km/h (2 Bft) 100,00 %
19.10.2016 02:00 10,4 C 97 % 1019,7 hPa 0,0 l/m 4,0 km/h (1 Bft) SW 218 0 min 0,000 mm 0,0 UV-I 0 W/m 9,9 C 10,4 C 6,4 km/h (2 Bft) 97,56 %
19.10.2016 02:02 10,4 C 97 % 1019,7 hPa 0,0 l/m 4,5 km/h (1 Bft) SW 217 0 min 0,000 mm 0,0 UV-I 0 W/m 9,9 C 10,4 C 6,4 km/h (2 Bft) 98,00 %
19.10.2016 02:04 10,4 C 97 % 1019,7 hPa 0,0 l/m 4,1 km/h (1 Bft) SW 217 0 min 0,000 mm 0,0 UV-I 0 W/m 9,9 C 10,4 C 6,4 km/h (2 Bft) 97,14 %
19.10.2016 02:06 10,4 C 97 % 1019,6 hPa 0,0 l/m 3,9 km/h (1 Bft) SW 217 0 min 0,000 mm 0,0 UV-I 0 W/m 9,9 C 10,4 C 6,4 km/h (2 Bft) 98,39 %
19.10.2016 02:08 10,4 C 97 % 1019,6 hPa 0,0 l/m 4,0 km/h (1 Bft) SW 217 0 min 0,000 mm 0,0 UV-I 0 W/m 9,9 C 10,4 C 6,4 km/h (2 Bft) 97,56 %
19.10.2016 02:10 10,3 C 97 % 1019,6 hPa 0,0 l/m 4,3 km/h (1 Bft) SW 215 0 min 0,000 mm 0,0 UV-I 0 W/m 9,8 C 10,3 C 6,4 km/h (2 Bft) 97,87 %
19.10.2016 02:12 10,3 C 97 % 1019,6 hPa 0,0 l/m 3,9 km/h (1 Bft) SW 214 0 min 0,000 mm 0,0 UV-I 0 W/m 9,8 C 10,3 C 4,8 km/h (1 Bft) 96,00 %
19.10.2016 02:14 10,3 C 97 % 1019,6 hPa 0,0 l/m 4,0 km/h (1 Bft) SW 232 0 min 0,000 mm 0,0 UV-I 0 W/m 9,8 C 10,3 C 6,4 km/h (2 Bft) 97,73 %
19.10.2016 02:16 10,3 C 97 % 1019,6 hPa 0,0 l/m 5,4 km/h (1 Bft) SW 217 0 min 0,000 mm 0,0 UV-I 0 W/m 9,8 C 10,3 C 8,0 km/h (2 Bft) 96,00 %
19.10.2016 02:18 10,3 C 97 % 1019,5 hPa 0,0 l/m 5,4 km/h (1 Bft) S-SW 205 0 min 0,000 mm 0,0 UV-I 0 W/m 9,8 C 10,3 C 8,0 km/h (2 Bft) 95,74 %
19.10.2016 02:20 10,3 C 97 % 1019,6 hPa 0,0 l/m 4,5 km/h (1 Bft) SW 222 0 min 0,000 mm 0,0 UV-I 0 W/m 9,8 C 10,3 C 6,4 km/h (2 Bft) 92,11 %
19.10.2016 02:22 10,3 C 97 % 1019,5 hPa 0,0 l/m 4,4 km/h (1 Bft) SW 227 0 min 0,000 mm 0,0 UV-I 0 W/m 9,8 C 10,3 C 6,4 km/h (2 Bft) 98,00 %
19.10.2016 02:24 10,3 C 97 % 1019,5 hPa 0,0 l/m 4,6 km/h (1 Bft) SW 227 0 min 0,000 mm 0,0 UV-I 0 W/m 9,8 C 10,3 C 6,4 km/h (2 Bft) 92,31 %
19.10.2016 02:26 10,3 C 97 % 1019,5 hPa 0,0 l/m 5,3 km/h (1 Bft) SW 224 0 min 0,000 mm 0,0 UV-I 0 W/m 9,8 C 10,3 C 8,0 km/h (2 Bft) 96,23 %
19.10.2016 02:28 10,2 C 97 % 1019,5 hPa 0,0 l/m 6,3 km/h (2 Bft) SW 224 0 min 0,000 mm 0,0 UV-I 0 W/m 9,7 C 10,2 C 8,0 km/h (2 Bft) 97,73 %
19.10.2016 02:30 10,2 C 97 % 1019,4 hPa 0,0 l/m 5,0 km/h (1 Bft) SW 234 0 min 0,000 mm 0,0 UV-I 0 W/m 9,7 C 10,2 C 6,4 km/h (2 Bft) 96,23 %
19.10.2016 02:32 10,2 C 97 % 1019,5 hPa 0,0 l/m 4,2 km/h (1 Bft) SW 232 0 min 0,000 mm 0,0 UV-I 0 W/m 9,7 C 10,2 C 6,4 km/h (2 Bft) 98,00 %
19.10.2016 02:34 10,2 C 97 % 1019,4 hPa 0,0 l/m 5,4 km/h (1 Bft) SW 225 0 min 0,000 mm 0,0 UV-I 0 W/m 9,7 C 10,2 C 8,0 km/h (2 Bft) 97,37 %
19.10.2016 02:36 10,2 C 97 % 1019,5 hPa 0,0 l/m 5,3 km/h (1 Bft) S-SW 209 0 min 0,000 mm 0,0 UV-I 0 W/m 9,7 C 10,2 C 8,0 km/h (2 Bft) 98,00 %
19.10.2016 02:38 10,2 C 97 % 1019,4 hPa 0,0 l/m 5,5 km/h (1 Bft) SW 227 0 min 0,000 mm 0,0 UV-I 0 W/m 9,7 C 10,2 C 8,0 km/h (2 Bft) 97,87 %
19.10.2016 02:40 10,2 C 97 % 1019,4 hPa 0,0 l/m 4,5 km/h (1 Bft) SW 227 0 min 0,000 mm 0,0 UV-I 0 W/m 9,7 C 10,2 C 6,4 km/h (2 Bft) 100,00 %
19.10.2016 02:42 10,2 C 97 % 1019,3 hPa 0,0 l/m 3,9 km/h (1 Bft) SW 227 0 min 0,000 mm 0,0 UV-I 0 W/m 9,7 C 10,2 C 6,4 km/h (2 Bft) 97,56 %
19.10.2016 02:44 10,2 C 97 % 1019,2 hPa 0,0 l/m 3,4 km/h (1 Bft) SW 223 0 min 0,000 mm 0,0 UV-I 0 W/m 9,7 C 10,2 C 4,8 km/h (1 Bft) 98,00 %
19.10.2016 02:46 10,2 C 97 % 1019,2 hPa 0,0 l/m 4,4 km/h (1 Bft) SW 215 0 min 0,000 mm 0,0 UV-I 0 W/m 9,7 C 10,2 C 6,4 km/h (2 Bft) 96,00 %
19.10.2016 02:48 10,2 C 97 % 1019,2 hPa 0,0 l/m 4,4 km/h (1 Bft) SW 235 0 min 0,000 mm 0,0 UV-I 0 W/m 9,7 C 10,2 C 6,4 km/h (2 Bft) 97,87 %
19.10.2016 02:50 10,2 C 97 % 1019,2 hPa 0,0 l/m 6,3 km/h (2 Bft) SW 236 0 min 0,000 mm 0,0 UV-I 0 W/m 9,7 C 10,2 C 9,7 km/h (2 Bft) 100,00 %
19.10.2016 02:52 10,2 C 97 % 1019,3 hPa 0,0 l/m 5,6 km/h (1 Bft) SW 231 0 min 0,000 mm 0,0 UV-I 0 W/m 9,7 C 10,2 C 8,0 km/h (2 Bft) 100,00 %
19.10.2016 02:54 10,1 C 97 % 1019,2 hPa 0,0 l/m 4,7 km/h (1 Bft) SW 236 0 min 0,000 mm 0,0 UV-I 0 W/m 9,6 C 10,1 C 8,0 km/h (2 Bft) 97,37 %
19.10.2016 02:56 10,1 C 97 % 1019,2 hPa 0,0 l/m 4,1 km/h (1 Bft) SW 223 0 min 0,000 mm 0,0 UV-I 0 W/m 9,6 C 10,1 C 6,4 km/h (2 Bft) 98,00 %
19.10.2016 02:58 10,1 C 97 % 1019,2 hPa 0,0 l/m 4,5 km/h (1 Bft) S-SW 212 0 min 0,000 mm 0,0 UV-I 0 W/m 9,6 C 10,1 C 6,4 km/h (2 Bft) 100,00 %
19.10.2016 03:00 10,1 C 97 % 1019,2 hPa 0,0 l/m 4,3 km/h (1 Bft) S-SW 212 0 min 0,000 mm 0,0 UV-I 0 W/m 9,6 C 10,1 C 6,4 km/h (2 Bft) 95,74 %
19.10.2016 03:02 10,1 C 97 % 1019,2 hPa 0,0 l/m 4,6 km/h (1 Bft) S-SW 211 0 min 0,000 mm 0,0 UV-I 0 W/m 9,6 C 10,1 C 8,0 km/h (2 Bft) 100,00 %
19.10.2016 03:04 10,1 C 97 % 1019,1 hPa 0,0 l/m 4,2 km/h (1 Bft) S-SW 211 0 min 0,000 mm 0,0 UV-I 0 W/m 9,6 C 10,1 C 6,4 km/h (2 Bft) 100,00 %
19.10.2016 03:06 10,1 C 97 % 1019,1 hPa 0,0 l/m 5,2 km/h (1 Bft) S-SW 211 0 min 0,000 mm 0,0 UV-I 0 W/m 9,6 C 10,1 C 8,0 km/h (2 Bft) 97,87 %
19.10.2016 03:08 10,1 C 97 % 1019,1 hPa 0,0 l/m 4,3 km/h (1 Bft) S-SW 211 0 min 0,000 mm 0,0 UV-I 0 W/m 9,6 C 10,1 C 6,4 km/h (2 Bft) 100,00 %
19.10.2016 03:10 10,1 C 97 % 1019,1 hPa 0,0 l/m 4,7 km/h (1 Bft) S-SW 213 0 min 0,000 mm 0,0 UV-I 0 W/m 9,6 C 10,1 C 6,4 km/h (2 Bft) 100,00 %
19.10.2016 03:12 10,1 C 97 % 1019,2 hPa 0,0 l/m 5,2 km/h (1 Bft) SW 216 0 min 0,000 mm 0,0 UV-I 0 W/m 9,6 C 10,1 C 8,0 km/h (2 Bft) 100,00 %
19.10.2016 03:14 10,1 C 97 % 1019,1 hPa 0,0 l/m 5,5 km/h (1 Bft) SW 217 0 min 0,000 mm 0,0 UV-I 0 W/m 9,6 C 10,1 C 8,0 km/h (2 Bft) 98,00 %
19.10.2016 03:16 10,0 C 97 % 1019,1 hPa 0,0 l/m 5,0 km/h (1 Bft) SW 224 0 min 0,000 mm 0,0 UV-I 0 W/m 9,5 C 10,0 C 8,0 km/h (2 Bft) 100,00 %
19.10.2016 03:18 10,1 C 97 % 1019,1 hPa 0,0 l/m 5,3 km/h (1 Bft) SW 217 0 min 0,000 mm 0,0 UV-I 0 W/m 9,6 C 10,1 C 8,0 km/h (2 Bft) 100,00 %
19.10.2016 03:20 10,1 C 97 % 1019,0 hPa 0,0 l/m 6,5 km/h (2 Bft) SW 224 0 min 0,000 mm 0,0 UV-I 0 W/m 9,6 C 10,1 C 9,7 km/h (2 Bft) 100,00 %
19.10.2016 03:22 10,1 C 97 % 1019,0 hPa 0,0 l/m 5,2 km/h (1 Bft) SW 235 0 min 0,000 mm 0,0 UV-I 0 W/m 9,6 C 10,1 C 8,0 km/h (2 Bft) 100,00 %
19.10.2016 03:24 10,1 C 97 % 1019,0 hPa 0,0 l/m 4,5 km/h (1 Bft) S-SW 212 0 min 0,000 mm 0,0 UV-I 0 W/m 9,6 C 10,1 C 8,0 km/h (2 Bft) 100,00 %
19.10.2016 03:26 10,1 C 97 % 1019,0 hPa 0,0 l/m 5,0 km/h (1 Bft) SW 226 0 min 0,000 mm 0,0 UV-I 0 W/m 9,6 C 10,1 C 8,0 km/h (2 Bft) 100,00 %
19.10.2016 03:28 10,1 C 97 % 1018,9 hPa 0,0 l/m 4,5 km/h (1 Bft) SW 219 0 min 0,000 mm 0,0 UV-I 0 W/m 9,6 C 10,1 C 6,4 km/h (2 Bft) 98,00 %
19.10.2016 03:30 10,1 C 97 % 1018,9 hPa 0,0 l/m 5,4 km/h (1 Bft) S-SW 211 0 min 0,000 mm 0,0 UV-I 0 W/m 9,6 C 10,1 C 9,7 km/h (2 Bft) 100,00 %
19.10.2016 03:32 10,1 C 97 % 1018,9 hPa 0,0 l/m 4,0 km/h (1 Bft) SW 224 0 min 0,000 mm 0,0 UV-I 0 W/m 9,6 C 10,1 C 6,4 km/h (2 Bft) 100,00 %
19.10.2016 03:34 10,1 C 97 % 1019,0 hPa 0,0 l/m 4,6 km/h (1 Bft) SW 222 0 min 0,000 mm 0,0 UV-I 0 W/m 9,6 C 10,1 C 6,4 km/h (2 Bft) 98,00 %
19.10.2016 03:36 10,0 C 97 % 1018,9 hPa 0,0 l/m 4,8 km/h (1 Bft) SW 226 0 min 0,000 mm 0,0 UV-I 0 W/m 9,5 C 10,0 C 6,4 km/h (2 Bft) 98,00 %
19.10.2016 03:38 10,0 C 97 % 1018,9 hPa 0,0 l/m 5,4 km/h (1 Bft) S-SW 212 0 min 0,000 mm 0,0 UV-I 0 W/m 9,5 C 10,0 C 8,0 km/h (2 Bft) 100,00 %
19.10.2016 03:40 10,0 C 97 % 1018,9 hPa 0,0 l/m 6,2 km/h (2 Bft) S-SW 212 0 min 0,000 mm 0,0 UV-I 0 W/m 9,5 C 10,0 C 9,7 km/h (2 Bft) 100,00 %
19.10.2016 03:42 9,9 C 97 % 1018,9 hPa 0,0 l/m 7,1 km/h (2 Bft) S-SW 207 0 min 0,000 mm 0,0 UV-I 0 W/m 9,4 C 9,4 C 11,3 km/h (2 Bft) 100,00 %
19.10.2016 03:44 9,9 C 97 % 1018,9 hPa 0,0 l/m 4,8 km/h (1 Bft) S-SW 211 0 min 0,000 mm 0,0 UV-I 0 W/m 9,4 C 9,9 C 6,4 km/h (2 Bft) 100,00 %
19.10.2016 03:46 9,9 C 97 % 1018,8 hPa 0,0 l/m 4,9 km/h (1 Bft) S-SW 212 0 min 0,000 mm 0,0 UV-I 0 W/m 9,4 C 9,9 C 8,0 km/h (2 Bft) 100,00 %
19.10.2016 03:48 9,9 C 97 % 1018,8 hPa 0,0 l/m 5,0 km/h (1 Bft) S-SW 209 0 min 0,000 mm 0,0 UV-I 0 W/m 9,4 C 9,9 C 8,0 km/h (2 Bft) 100,00 %
19.10.2016 03:50 9,9 C 97 % 1018,9 hPa 0,0 l/m 4,7 km/h (1 Bft) S-SW 194 0 min 0,000 mm 0,0 UV-I 0 W/m 9,4 C 9,9 C 6,4 km/h (2 Bft) 100,00 %
19.10.2016 03:52 9,9 C 97 % 1018,9 hPa 0,0 l/m 4,3 km/h (1 Bft) S-SW 213 0 min 0,000 mm 0,0 UV-I 0 W/m 9,4 C 9,9 C 6,4 km/h (2 Bft) 100,00 %
19.10.2016 03:54 9,8 C 97 % 1018,9 hPa 0,0 l/m 4,8 km/h (1 Bft) S 191 0 min 0,000 mm 0,0 UV-I 0 W/m 9,3 C 9,8 C 6,4 km/h (2 Bft) 100,00 %
19.10.2016 03:56 9,8 C 97 % 1018,8 hPa 0,0 l/m 3,7 km/h (1 Bft) S 190 0 min 0,000 mm 0,0 UV-I 0 W/m 9,3 C 9,8 C 4,8 km/h (1 Bft) 100,00 %
19.10.2016 03:58 9,8 C 97 % 1018,8 hPa 0,0 l/m 3,7 km/h (1 Bft) S-SO 168 0 min 0,000 mm 0,0 UV-I 0 W/m 9,3 C 9,8 C 6,4 km/h (2 Bft) 100,00 %
19.10.2016 04:00 9,8 C 97 % 1018,8 hPa 0,0 l/m 3,5 km/h (1 Bft) S 183 0 min 0,000 mm 0,0 UV-I 0 W/m 9,3 C 9,8 C 6,4 km/h (2 Bft) 100,00 %
19.10.2016 04:02 9,8 C 97 % 1018,8 hPa 0,0 l/m 3,5 km/h (1 Bft) S-SW 194 0 min 0,000 mm 0,0 UV-I 0 W/m 9,3 C 9,8 C 6,4 km/h (2 Bft) 100,00 %
19.10.2016 04:04 9,8 C 97 % 1018,8 hPa 0,0 l/m 3,9 km/h (1 Bft) S 179 0 min 0,000 mm 0,0 UV-I 0 W/m 9,3 C 9,8 C 8,0 km/h (2 Bft) 98,00 %
19.10.2016 04:06 9,8 C 97 % 1018,8 hPa 0,0 l/m 4,2 km/h (1 Bft) S 178 0 min 0,000 mm 0,0 UV-I 0 W/m 9,3 C 9,8 C 4,8 km/h (1 Bft) 97,37 %
19.10.2016 04:08 9,8 C 97 % 1018,8 hPa 0,0 l/m 4,1 km/h (1 Bft) S 184 0 min 0,000 mm 0,0 UV-I 0 W/m 9,3 C 9,8 C 6,4 km/h (2 Bft) 98,21 %
19.10.2016 04:10 9,7 C 97 % 1018,8 hPa 0,0 l/m 4,2 km/h (1 Bft) S 182 0 min 0,000 mm 0,0 UV-I 0 W/m 9,2 C 9,7 C 9,7 km/h (2 Bft) 97,37 %
19.10.2016 04:12 9,7 C 97 % 1018,8 hPa 0,0 l/m 3,8 km/h (1 Bft) S-SW 192 0 min 0,000 mm 0,0 UV-I 0 W/m 9,2 C 9,7 C 6,4 km/h (2 Bft) 94,64 %
19.10.2016 04:14 9,7 C 97 % 1018,8 hPa 0,0 l/m 3,7 km/h (1 Bft) S 190 0 min 0,000 mm 0,0 UV-I 0 W/m 9,2 C 9,7 C 6,4 km/h (2 Bft) 97,87 %
19.10.2016 04:16 9,7 C 97 % 1018,8 hPa 0,0 l/m 2,7 km/h (1 Bft) S 188 0 min 0,000 mm 0,0 UV-I 0 W/m 9,2 C 9,7 C 4,8 km/h (1 Bft) 97,87 %
19.10.2016 04:18 9,7 C 97 % 1018,8 hPa 0,0 l/m 3,3 km/h (1 Bft) S-SW 194 0 min 0,000 mm 0,0 UV-I 0 W/m 9,2 C 9,7 C 6,4 km/h (2 Bft) 97,87 %
19.10.2016 04:20 9,7 C 97 % 1018,8 hPa 0,0 l/m 3,5 km/h (1 Bft) S-SW 192 0 min 0,000 mm 0,0 UV-I 0 W/m 9,2 C 9,7 C 4,8 km/h (1 Bft) 95,74 %
19.10.2016 04:22 9,6 C 97 % 1018,8 hPa 0,0 l/m 2,1 km/h (1 Bft) S-SW 192 0 min 0,000 mm 0,0 UV-I 0 W/m 9,1 C 9,6 C 4,8 km/h (1 Bft) 97,37 %
19.10.2016 04:24 9,6 C 97 % 1018,8 hPa 0,0 l/m 3,6 km/h (1 Bft) S-SW 192 0 min 0,000 mm 0,0 UV-I 0 W/m 9,1 C 9,6 C 4,8 km/h (1 Bft) 91,84 %
19.10.2016 04:26 9,6 C 97 % 1018,7 hPa 0,0 l/m 2,5 km/h (1 Bft) S 191 0 min 0,000 mm 0,0 UV-I 0 W/m 9,1 C 9,6 C 4,8 km/h (1 Bft) 98,08 %
19.10.2016 04:28 9,6 C 97 % 1018,7 hPa 0,0 l/m 3,4 km/h (1 Bft) S 190 0 min 0,000 mm 0,0 UV-I 0 W/m 9,1 C 9,6 C 4,8 km/h (1 Bft) 95,83 %
19.10.2016 04:30 9,6 C 97 % 1018,7 hPa 0,0 l/m 4,2 km/h (1 Bft) S 182 0 min 0,000 mm 0,0 UV-I 0 W/m 9,1 C 9,6 C 6,4 km/h (2 Bft) 97,87 %
19.10.2016 04:32 9,6 C 97 % 1018,7 hPa 0,0 l/m 3,0 km/h (1 Bft) S 177 0 min 0,000 mm 0,0 UV-I 0 W/m 9,1 C 9,6 C 6,4 km/h (2 Bft) 97,37 %
19.10.2016 04:34 9,6 C 97 % 1018,6 hPa 0,0 l/m 3,7 km/h (1 Bft) S 184 0 min 0,000 mm 0,0 UV-I 0 W/m 9,1 C 9,6 C 4,8 km/h (1 Bft) 98,00 %
19.10.2016 04:36 9,6 C 97 % 1018,7 hPa 0,0 l/m 4,1 km/h (1 Bft) S 184 0 min 0,000 mm 0,0 UV-I 0 W/m 9,1 C 9,6 C 4,8 km/h (1 Bft) 96,23 %
19.10.2016 04:38 9,6 C 97 % 1018,6 hPa 0,0 l/m 2,7 km/h (1 Bft) S 183 0 min 0,000 mm 0,0 UV-I 0 W/m 9,1 C 9,6 C 4,8 km/h (1 Bft) 96,15 %
19.10.2016 04:40 9,6 C 97 % 1018,6 hPa 0,0 l/m 3,2 km/h (1 Bft) S 183 0 min 0,000 mm 0,0 UV-I 0 W/m 9,1 C 9,6 C 6,4 km/h (2 Bft) 98,46 %
19.10.2016 04:42 9,6 C 97 % 1018,6 hPa 0,0 l/m 2,8 km/h (1 Bft) S 178 0 min 0,000 mm 0,0 UV-I 0 W/m 9,1 C 9,6 C 4,8 km/h (1 Bft) 100,00 %
19.10.2016 04:44 9,6 C 97 % 1018,6 hPa 0,0 l/m 4,3 km/h (1 Bft) S 190 0 min 0,000 mm 0,0 UV-I 0 W/m 9,1 C 9,6 C 8,0 km/h (2 Bft) 97,87 %
19.10.2016 04:46 9,6 C 97 % 1018,5 hPa 0,0 l/m 3,1 km/h (1 Bft) S 191 0 min 0,000 mm 0,0 UV-I 0 W/m 9,1 C 9,6 C 8,0 km/h (2 Bft) 97,87 %
19.10.2016 04:48 9,6 C 97 % 1018,5 hPa 0,0 l/m 4,1 km/h (1 Bft) S 190 0 min 0,000 mm 0,0 UV-I 0 W/m 9,1 C 9,6 C 6,4 km/h (2 Bft) 100,00 %
19.10.2016 04:50 9,6 C 97 % 1018,5 hPa 0,0 l/m 3,0 km/h (1 Bft) S 191 0 min 0,000 mm 0,0 UV-I 0 W/m 9,1 C 9,6 C 4,8 km/h (1 Bft) 100,00 %
19.10.2016 04:52 9,5 C 97 % 1018,4 hPa 0,0 l/m 2,7 km/h (1 Bft) S 190 0 min 0,000 mm 0,0 UV-I 0 W/m 9,0 C 9,5 C 4,8 km/h (1 Bft) 100,00 %
19.10.2016 04:54 9,5 C 97 % 1018,4 hPa 0,0 l/m 3,0 km/h (1 Bft) S 190 0 min 0,000 mm 0,0 UV-I 0 W/m 9,0 C 9,5 C 4,8 km/h (1 Bft) 100,00 %
19.10.2016 04:56 9,5 C 97 % 1018,4 hPa 0,0 l/m 3,2 km/h (1 Bft) S 189 0 min 0,000 mm 0,0 UV-I 0 W/m 9,0 C 9,5 C 4,8 km/h (1 Bft) 100,00 %
19.10.2016 04:58 9,4 C 97 % 1018,4 hPa 0,0 l/m 3,1 km/h (1 Bft) S 189 0 min 0,000 mm 0,0 UV-I 0 W/m 8,9 C 9,4 C 4,8 km/h (1 Bft) 100,00 %
19.10.2016 05:00 9,4 C 97 % 1018,4 hPa 0,0 l/m 3,3 km/h (1 Bft) S 190 0 min 0,000 mm 0,0 UV-I 0 W/m 8,9 C 9,4 C 4,8 km/h (1 Bft) 100,00 %
19.10.2016 05:02 9,4 C 97 % 1018,3 hPa 0,0 l/m 3,1 km/h (1 Bft) S-SW 194 0 min 0,000 mm 0,0 UV-I 0 W/m 8,9 C 9,4 C 4,8 km/h (1 Bft) 100,00 %
19.10.2016 05:04 9,3 C 97 % 1018,3 hPa 0,0 l/m 3,4 km/h (1 Bft) S 184 0 min 0,000 mm 0,0 UV-I 0 W/m 8,8 C 9,3 C 6,4 km/h (2 Bft) 100,00 %
19.10.2016 05:06 9,3 C 97 % 1018,3 hPa 0,0 l/m 4,5 km/h (1 Bft) S 184 0 min 0,000 mm 0,0 UV-I 0 W/m 8,8 C 9,3 C 6,4 km/h (2 Bft) 100,00 %
19.10.2016 05:08 9,3 C 97 % 1018,3 hPa 0,0 l/m 4,0 km/h (1 Bft) S-SW 202 0 min 0,000 mm 0,0 UV-I 0 W/m 8,8 C 9,3 C 4,8 km/h (1 Bft) 100,00 %
19.10.2016 05:10 9,3 C 97 % 1018,3 hPa 0,0 l/m 3,8 km/h (1 Bft) S-SW 202 0 min 0,000 mm 0,0 UV-I 0 W/m 8,8 C 9,3 C 6,4 km/h (2 Bft) 100,00 %
19.10.2016 05:12 9,3 C 97 % 1018,3 hPa 0,0 l/m 3,0 km/h (1 Bft) S-SW 209 0 min 0,000 mm 0,0 UV-I 0 W/m 8,8 C 9,3 C 6,4 km/h (2 Bft) 100,00 %
19.10.2016 05:14 9,3 C 97 % 1018,3 hPa 0,0 l/m 3,1 km/h (1 Bft) S-SW 209 0 min 0,000 mm 0,0 UV-I 0 W/m 8,8 C 9,3 C 4,8 km/h (1 Bft) 100,00 %
19.10.2016 05:16 9,3 C 97 % 1018,3 hPa 0,0 l/m 3,4 km/h (1 Bft) S-SW 209 0 min 0,000 mm 0,0 UV-I 0 W/m 8,8 C 9,3 C 6,4 km/h (2 Bft) 97,87 %
19.10.2016 05:18 9,2 C 97 % 1018,3 hPa 0,0 l/m 3,0 km/h (1 Bft) S-SW 209 0 min 0,000 mm 0,0 UV-I 0 W/m 8,7 C 9,2 C 4,8 km/h (1 Bft) 97,87 %
19.10.2016 05:20 9,2 C 97 % 1018,3 hPa 0,0 l/m 2,5 km/h (1 Bft) S-SW 209 0 min 0,000 mm 0,0 UV-I 0 W/m 8,7 C 9,2 C 3,2 km/h (1 Bft) 100,00 %
19.10.2016 05:22 9,2 C 97 % 1018,3 hPa 0,0 l/m 2,9 km/h (1 Bft) S-SW 209 0 min 0,000 mm 0,0 UV-I 0 W/m 8,7 C 9,2 C 3,2 km/h (1 Bft) 97,87 %
19.10.2016 05:24 9,2 C 97 % 1018,3 hPa 0,0 l/m 3,0 km/h (1 Bft) S-SW 209 0 min 0,000 mm 0,0 UV-I 0 W/m 8,7 C 9,2 C 4,8 km/h (1 Bft) 100,00 %
19.10.2016 05:26 9,2 C 97 % 1018,3 hPa 0,0 l/m 2,0 km/h (1 Bft) S-SW 209 0 min 0,000 mm 0,0 UV-I 0 W/m 8,7 C 9,2 C 3,2 km/h (1 Bft) 100,00 %
19.10.2016 05:28 9,2 C 97 % 1018,3 hPa 0,0 l/m 1,5 km/h (1 Bft) S-SW 209 0 min 0,000 mm 0,0 UV-I 0 W/m 8,7 C 9,2 C 3,2 km/h (1 Bft) 100,00 %
19.10.2016 05:30 9,2 C 97 % 1018,2 hPa 0,0 l/m 2,1 km/h (1 Bft) S-SW 209 0 min 0,000 mm 0,0 UV-I 0 W/m 8,7 C 9,2 C 3,2 km/h (1 Bft) 100,00 %
19.10.2016 05:32 9,2 C 97 % 1018,2 hPa 0,0 l/m 2,1 km/h (1 Bft) S-SW 209 0 min 0,000 mm 0,0 UV-I 0 W/m 8,7 C 9,2 C 3,2 km/h (1 Bft) 100,00 %
19.10.2016 05:34 9,2 C 97 % 1018,1 hPa 0,0 l/m 1,5 km/h (1 Bft) S-SW 196 0 min 0,000 mm 0,0 UV-I 0 W/m 8,7 C 9,2 C 3,2 km/h (1 Bft) 100,00 %
19.10.2016 05:36 9,3 C 97 % 1018,1 hPa 0,0 l/m 1,5 km/h (1 Bft) S-SW 196 0 min 0,000 mm 0,0 UV-I 0 W/m 8,8 C 9,3 C 4,8 km/h (1 Bft) 100,00 %
19.10.2016 05:38 9,3 C 97 % 1018,1 hPa 0,0 l/m 2,1 km/h (1 Bft) S-SW 196 0 min 0,000 mm 0,0 UV-I 0 W/m 8,8 C 9,3 C 3,2 km/h (1 Bft) 100,00 %
19.10.2016 05:40 9,3 C 97 % 1018,2 hPa 0,0 l/m 3,3 km/h (1 Bft) S-SW 196 0 min 0,000 mm 0,0 UV-I 0 W/m 8,8 C 9,3 C 4,8 km/h (1 Bft) 100,00 %
19.10.2016 05:42 9,3 C 97 % 1018,2 hPa 0,0 l/m 3,7 km/h (1 Bft) S-SW 192 0 min 0,000 mm 0,0 UV-I 0 W/m 8,8 C 9,3 C 4,8 km/h (1 Bft) 100,00 %
19.10.2016 05:44 9,3 C 97 % 1018,1 hPa 0,0 l/m 1,9 km/h (1 Bft) S 190 0 min 0,000 mm 0,0 UV-I 0 W/m 8,8 C 9,3 C 4,8 km/h (1 Bft) 100,00 %
19.10.2016 05:46 9,3 C 97 % 1018,1 hPa 0,0 l/m 2,9 km/h (1 Bft) S 190 0 min 0,000 mm 0,0 UV-I 0 W/m 8,8 C 9,3 C 4,8 km/h (1 Bft) 100,00 %
19.10.2016 05:48 9,3 C 97 % 1018,1 hPa 0,0 l/m 1,8 km/h (1 Bft) S 190 0 min 0,000 mm 0,0 UV-I 0 W/m 8,8 C 9,3 C 4,8 km/h (1 Bft) 100,00 %
19.10.2016 05:50 9,3 C 97 % 1018,1 hPa 0,0 l/m 2,3 km/h (1 Bft) S 190 0 min 0,000 mm 0,0 UV-I 0 W/m 8,8 C 9,3 C 4,8 km/h (1 Bft) 100,00 %
19.10.2016 05:52 9,3 C 97 % 1018,1 hPa 0,0 l/m 2,5 km/h (1 Bft) S 190 0 min 0,000 mm 0,0 UV-I 0 W/m 8,8 C 9,3 C 3,2 km/h (1 Bft) 100,00 %
19.10.2016 05:54 9,3 C 97 % 1018,1 hPa 0,0 l/m 2,9 km/h (1 Bft) S 190 0 min 0,000 mm 0,0 UV-I 0 W/m 8,8 C 9,3 C 4,8 km/h (1 Bft) 100,00 %
19.10.2016 05:56 9,3 C 97 % 1018,1 hPa 0,0 l/m 2,8 km/h (1 Bft) S 190 0 min 0,000 mm 0,0 UV-I 0 W/m 8,8 C 9,3 C 3,2 km/h (1 Bft) 98,11 %
19.10.2016 05:58 9,3 C 97 % 1018,1 hPa 0,0 l/m 3,0 km/h (1 Bft) S 190 0 min 0,000 mm 0,0 UV-I 0 W/m 8,8 C 9,3 C 4,8 km/h (1 Bft) 100,00 %
19.10.2016 06:00 9,3 C 97 % 1018,1 hPa 0,0 l/m 2,0 km/h (1 Bft) S 190 0 min 0,000 mm 0,0 UV-I 0 W/m 8,8 C 9,3 C 3,2 km/h (1 Bft) 97,37 %
19.10.2016 06:02 9,3 C 97 % 1018,1 hPa 0,0 l/m 3,7 km/h (1 Bft) S 190 0 min 0,000 mm 0,0 UV-I 0 W/m 8,8 C 9,3 C 4,8 km/h (1 Bft) 97,87 %
19.10.2016 06:04 9,2 C 97 % 1018,1 hPa 0,0 l/m 3,0 km/h (1 Bft) S 190 0 min 0,000 mm 0,0 UV-I 0 W/m 8,7 C 9,2 C 4,8 km/h (1 Bft) 97,37 %
19.10.2016 06:06 9,2 C 97 % 1018,0 hPa 0,0 l/m 2,8 km/h (1 Bft) S 190 0 min 0,000 mm 0,0 UV-I 0 W/m 8,7 C 9,2 C 4,8 km/h (1 Bft) 100,00 %
19.10.2016 06:08 9,2 C 97 % 1018,0 hPa 0,0 l/m 2,5 km/h (1 Bft) S 190 0 min 0,000 mm 0,0 UV-I 0 W/m 8,7 C 9,2 C 4,8 km/h (1 Bft) 100,00 %
19.10.2016 06:10 9,2 C 97 % 1018,0 hPa 0,0 l/m 2,9 km/h (1 Bft) S 190 0 min 0,000 mm 0,0 UV-I 0 W/m 8,7 C 9,2 C 4,8 km/h (1 Bft) 97,14 %
19.10.2016 06:12 9,2 C 97 % 1018,0 hPa 0,0 l/m 3,2 km/h (1 Bft) S 190 0 min 0,000 mm 0,0 UV-I 0 W/m 8,7 C 9,2 C 6,4 km/h (2 Bft) 96,00 %
19.10.2016 06:14 9,2 C 97 % 1018,0 hPa 0,0 l/m 2,6 km/h (1 Bft) S 190 0 min 0,000 mm 0,0 UV-I 0 W/m 8,7 C 9,2 C 4,8 km/h (1 Bft) 95,83 %
19.10.2016 06:16 9,2 C 97 % 1018,0 hPa 0,0 l/m 3,0 km/h (1 Bft) S 190 0 min 0,000 mm 0,0 UV-I 0 W/m 8,7 C 9,2 C 4,8 km/h (1 Bft) 95,74 %
19.10.2016 06:18 9,2 C 97 % 1018,0 hPa 0,0 l/m 4,7 km/h (1 Bft) S 170 0 min 0,000 mm 0,0 UV-I 0 W/m 8,7 C 9,2 C 8,0 km/h (2 Bft) 98,11 %
19.10.2016 06:20 9,2 C 97 % 1018,0 hPa 0,0 l/m 4,0 km/h (1 Bft) S 188 0 min 0,000 mm 0,0 UV-I 0 W/m 8,7 C 9,2 C 6,4 km/h (2 Bft) 97,73 %
19.10.2016 06:22 9,2 C 97 % 1018,0 hPa 0,0 l/m 3,6 km/h (1 Bft) S 178 0 min 0,000 mm 0,0 UV-I 0 W/m 8,7 C 9,2 C 4,8 km/h (1 Bft) 95,74 %
19.10.2016 06:24 9,2 C 97 % 1018,0 hPa 0,0 l/m 3,1 km/h (1 Bft) S 178 0 min 0,000 mm 0,0 UV-I 0 W/m 8,7 C 9,2 C 4,8 km/h (1 Bft) 97,62 %
19.10.2016 06:26 9,2 C 97 % 1018,0 hPa 0,0 l/m 1,8 km/h (1 Bft) S 178 0 min 0,000 mm 0,0 UV-I 0 W/m 8,7 C 9,2 C 4,8 km/h (1 Bft) 98,00 %
19.10.2016 06:28 9,2 C 97 % 1018,0 hPa 0,0 l/m 2,8 km/h (1 Bft) S 178 0 min 0,000 mm 0,0 UV-I 0 W/m 8,7 C 9,2 C 6,4 km/h (2 Bft) 93,62 %
19.10.2016 06:30 9,2 C 97 % 1018,0 hPa 0,0 l/m 2,3 km/h (1 Bft) S 178 0 min 0,000 mm 0,0 UV-I 0 W/m 8,7 C 9,2 C 3,2 km/h (1 Bft) 97,87 %
19.10.2016 06:32 9,2 C 97 % 1018,0 hPa 0,0 l/m 2,3 km/h (1 Bft) S 180 0 min 0,000 mm 0,0 UV-I 0 W/m 8,7 C 9,2 C 4,8 km/h (1 Bft) 96,00 %
19.10.2016 06:34 9,2 C 97 % 1017,9 hPa 0,0 l/m 3,0 km/h (1 Bft) S 180 0 min 0,000 mm 0,0 UV-I 0 W/m 8,7 C 9,2 C 4,8 km/h (1 Bft) 97,37 %
19.10.2016 06:36 9,2 C 97 % 1018,0 hPa 0,0 l/m 2,7 km/h (1 Bft) S 179 0 min 0,000 mm 0,0 UV-I 0 W/m 8,7 C 9,2 C 6,4 km/h (2 Bft) 98,00 %
19.10.2016 06:38 9,2 C 97 % 1017,9 hPa 0,0 l/m 3,1 km/h (1 Bft) S 179 0 min 0,000 mm 0,0 UV-I 0 W/m 8,7 C 9,2 C 4,8 km/h (1 Bft) 97,73 %
19.10.2016 06:40 9,2 C 97 % 1018,0 hPa 0,0 l/m 3,4 km/h (1 Bft) S 179 0 min 0,000 mm 0,0 UV-I 0 W/m 8,7 C 9,2 C 4,8 km/h (1 Bft) 98,00 %
19.10.2016 06:42 9,2 C 97 % 1017,9 hPa 0,0 l/m 2,8 km/h (1 Bft) S 179 0 min 0,000 mm 0,0 UV-I 0 W/m 8,7 C 9,2 C 4,8 km/h (1 Bft) 97,87 %
19.10.2016 06:44 9,2 C 97 % 1017,9 hPa 0,0 l/m 4,1 km/h (1 Bft) S 180 0 min 0,000 mm 0,0 UV-I 0 W/m 8,7 C 9,2 C 4,8 km/h (1 Bft) 100,00 %
19.10.2016 06:46 9,3 C 97 % 1017,9 hPa 0,0 l/m 3,9 km/h (1 Bft) S 181 0 min 0,000 mm 0,0 UV-I 0 W/m 8,8 C 9,3 C 4,8 km/h (1 Bft) 100,00 %
19.10.2016 06:48 9,3 C 97 % 1017,9 hPa 0,0 l/m 3,3 km/h (1 Bft) S 180 0 min 0,000 mm 0,0 UV-I 0 W/m 8,8 C 9,3 C 4,8 km/h (1 Bft) 97,87 %
19.10.2016 06:50 9,3 C 97 % 1017,9 hPa 0,0 l/m 4,2 km/h (1 Bft) S 190 0 min 0,000 mm 0,0 UV-I 0 W/m 8,8 C 9,3 C 6,4 km/h (2 Bft) 100,00 %
19.10.2016 06:52 9,3 C 97 % 1017,9 hPa 0,0 l/m 5,3 km/h (1 Bft) SW 218 0 min 0,000 mm 0,0 UV-I 0 W/m 8,8 C 9,3 C 8,0 km/h (2 Bft) 100,00 %
19.10.2016 06:54 9,3 C 97 % 1017,8 hPa 0,0 l/m 3,0 km/h (1 Bft) SW 218 0 min 0,000 mm 0,0 UV-I 0 W/m 8,8 C 9,3 C 6,4 km/h (2 Bft) 100,00 %
19.10.2016 06:56 9,3 C 97 % 1017,8 hPa 0,0 l/m 2,7 km/h (1 Bft) SW 217 0 min 0,000 mm 0,0 UV-I 0 W/m 8,8 C 9,3 C 4,8 km/h (1 Bft) 100,00 %
19.10.2016 06:58 9,3 C 97 % 1017,8 hPa 0,0 l/m 3,5 km/h (1 Bft) SW 214 0 min 0,000 mm 0,0 UV-I 0 W/m 8,8 C 9,3 C 4,8 km/h (1 Bft) 100,00 %
19.10.2016 07:00 9,3 C 97 % 1017,8 hPa 0,0 l/m 2,3 km/h (1 Bft) S-SW 213 0 min 0,000 mm 0,0 UV-I 0 W/m 8,8 C 9,3 C 3,2 km/h (1 Bft) 100,00 %
19.10.2016 07:02 9,3 C 97 % 1017,8 hPa 0,0 l/m 3,0 km/h (1 Bft) S-SW 212 0 min 0,000 mm 0,0 UV-I 0 W/m 8,8 C 9,3 C 4,8 km/h (1 Bft) 100,00 %
19.10.2016 07:04 9,3 C 97 % 1017,7 hPa 0,0 l/m 2,2 km/h (1 Bft) S-SW 212 0 min 0,000 mm 0,0 UV-I 0 W/m 8,8 C 9,3 C 3,2 km/h (1 Bft) 100,00 %
19.10.2016 07:06 9,3 C 97 % 1017,7 hPa 0,0 l/m 1,3 km/h (1 Bft) S-SW 212 0 min 0,000 mm 0,0 UV-I 0 W/m 8,8 C 9,3 C 3,2 km/h (1 Bft) 100,00 %
19.10.2016 07:08 9,3 C 97 % 1017,7 hPa 0,0 l/m 1,9 km/h (1 Bft) S-SW 212 0 min 0,000 mm 0,0 UV-I 0 W/m 8,8 C 9,3 C 3,2 km/h (1 Bft) 98,39 %
19.10.2016 07:10 9,3 C 97 % 1017,8 hPa 0,0 l/m 1,4 km/h (1 Bft) S-SW 212 0 min 0,000 mm 0,0 UV-I 0 W/m 8,8 C 9,3 C 3,2 km/h (1 Bft) 97,56 %
19.10.2016 07:12 9,3 C 97 % 1017,7 hPa 0,0 l/m 1,4 km/h (1 Bft) S-SW 212 0 min 0,000 mm 0,0 UV-I 0 W/m 8,8 C 9,3 C 3,2 km/h (1 Bft) 98,00 %
19.10.2016 07:14 9,3 C 97 % 1017,7 hPa 0,0 l/m 1,4 km/h (1 Bft) S-SW 211 0 min 0,000 mm 0,0 UV-I 0 W/m 8,8 C 9,3 C 3,2 km/h (1 Bft) 100,00 %
19.10.2016 07:16 9,2 C 97 % 1017,7 hPa 0,0 l/m 1,5 km/h (1 Bft) S-SW 211 0 min 0,000 mm 0,0 UV-I 0 W/m 8,7 C 9,2 C 3,2 km/h (1 Bft) 98,00 %
19.10.2016 07:18 9,2 C 97 % 1017,7 hPa 0,0 l/m 2,8 km/h (1 Bft) S-SW 209 0 min 0,000 mm 0,0 UV-I 0 W/m 8,7 C 9,2 C 4,8 km/h (1 Bft) 100,00 %
19.10.2016 07:20 9,2 C 97 % 1017,7 hPa 0,0 l/m 1,7 km/h (1 Bft) S-SW 209 0 min 0,000 mm 0,0 UV-I 0 W/m 8,7 C 9,2 C 3,2 km/h (1 Bft) 97,73 %
19.10.2016 07:22 9,2 C 97 % 1017,7 hPa 0,0 l/m 2,6 km/h (1 Bft) S-SW 209 0 min 0,000 mm 0,0 UV-I 0 W/m 8,7 C 9,2 C 4,8 km/h (1 Bft) 100,00 %
19.10.2016 07:24 9,2 C 97 % 1017,8 hPa 0,0 l/m 3,8 km/h (1 Bft) S-SW 207 0 min 0,000 mm 0,0 UV-I 0 W/m 8,7 C 9,2 C 4,8 km/h (1 Bft) 100,00 %
19.10.2016 07:26 9,2 C 97 % 1017,7 hPa 0,0 l/m 2,9 km/h (1 Bft) S-SW 207 0 min 0,000 mm 0,0 UV-I 0 W/m 8,7 C 9,2 C 4,8 km/h (1 Bft) 100,00 %
19.10.2016 07:28 9,2 C 97 % 1017,7 hPa 0,0 l/m 3,1 km/h (1 Bft) S-SW 207 0 min 0,000 mm 0,0 UV-I 0 W/m 8,7 C 9,2 C 6,4 km/h (2 Bft) 100,00 %
19.10.2016 07:30 9,2 C 97 % 1017,7 hPa 0,0 l/m 2,5 km/h (1 Bft) S-SW 207 0 min 0,000 mm 0,0 UV-I 0 W/m 8,7 C 9,2 C 3,2 km/h (1 Bft) 98,11 %
19.10.2016 07:32 9,2 C 97 % 1017,7 hPa 0,0 l/m 2,8 km/h (1 Bft) S-SW 207 0 min 0,000 mm 0,0 UV-I 0 W/m 8,7 C 9,2 C 4,8 km/h (1 Bft) 100,00 %
19.10.2016 07:34 9,2 C 97 % 1017,7 hPa 0,0 l/m 2,1 km/h (1 Bft) S-SW 207 0 min 0,000 mm 0,0 UV-I 0 W/m 8,7 C 9,2 C 4,8 km/h (1 Bft) 100,00 %
19.10.2016 07:36 9,2 C 97 % 1017,8 hPa 0,0 l/m 3,0 km/h (1 Bft) S-SW 207 0 min 0,000 mm 0,0 UV-I 0 W/m 8,7 C 9,2 C 4,8 km/h (1 Bft) 93,62 %
19.10.2016 07:38 9,2 C 97 % 1017,8 hPa 0,0 l/m 3,1 km/h (1 Bft) S-SW 206 0 min 0,000 mm 0,0 UV-I 0 W/m 8,7 C 9,2 C 4,8 km/h (1 Bft) 100,00 %
19.10.2016 07:40 9,2 C 97 % 1017,8 hPa 0,0 l/m 2,9 km/h (1 Bft) S-SW 206 0 min 0,000 mm 0,0 UV-I 0 W/m 8,7 C 9,2 C 6,4 km/h (2 Bft) 100,00 %
19.10.2016 07:42 9,2 C 97 % 1017,8 hPa 0,0 l/m 2,3 km/h (1 Bft) S-SW 206 0 min 0,000 mm 0,0 UV-I 2 W/m 8,7 C 9,2 C 4,8 km/h (1 Bft) 100,00 %
19.10.2016 07:44 9,2 C 97 % 1017,8 hPa 0,0 l/m 2,5 km/h (1 Bft) S-SW 206 0 min 0,000 mm 0,0 UV-I 5 W/m 8,7 C 9,2 C 4,8 km/h (1 Bft) 98,00 %
19.10.2016 07:46 9,2 C 97 % 1017,9 hPa 0,0 l/m 2,5 km/h (1 Bft) S-SW 206 0 min 0,000 mm 0,0 UV-I 5 W/m 8,7 C 9,2 C 3,2 km/h (1 Bft) 100,00 %
19.10.2016 07:48 9,2 C 97 % 1017,9 hPa 0,0 l/m 2,7 km/h (1 Bft) S-SW 205 0 min 0,000 mm 0,0 UV-I 7 W/m 8,7 C 9,2 C 4,8 km/h (1 Bft) 100,00 %
19.10.2016 07:50 9,2 C 97 % 1017,9 hPa 0,0 l/m 2,8 km/h (1 Bft) S-SW 205 0 min 0,000 mm 0,0 UV-I 7 W/m 8,7 C 9,2 C 4,8 km/h (1 Bft) 97,87 %
19.10.2016 07:52 9,2 C 97 % 1017,9 hPa 0,0 l/m 2,8 km/h (1 Bft) S-SW 205 0 min 0,000 mm 0,0 UV-I 8 W/m 8,7 C 9,2 C 4,8 km/h (1 Bft) 100,00 %
19.10.2016 07:54 9,2 C 97 % 1017,9 hPa 0,0 l/m 3,1 km/h (1 Bft) S-SW 205 0 min 0,000 mm 0,0 UV-I 9 W/m 8,7 C 9,2 C 4,8 km/h (1 Bft) 100,00 %
19.10.2016 07:56 9,2 C 97 % 1017,9 hPa 0,0 l/m 2,4 km/h (1 Bft) S-SW 205 0 min 0,000 mm 0,0 UV-I 11 W/m 8,7 C 9,2 C 4,8 km/h (1 Bft) 100,00 %
19.10.2016 07:58 9,2 C 97 % 1018,0 hPa 0,0 l/m 1,2 km/h (1 Bft) S-SW 205 0 min 0,000 mm 0,0 UV-I 11 W/m 8,7 C 9,2 C 3,2 km/h (1 Bft) 100,00 %
19.10.2016 08:00 9,2 C 97 % 1018,0 hPa 0,0 l/m 2,2 km/h (1 Bft) S-SW 205 0 min 0,000 mm 0,0 UV-I 11 W/m 8,7 C 9,2 C 3,2 km/h (1 Bft) 100,00 %
19.10.2016 08:02 9,1 C 97 % 1018,0 hPa 0,0 l/m 3,3 km/h (1 Bft) S-SW 205 0 min 0,000 mm 0,0 UV-I 11 W/m 8,6 C 9,1 C 4,8 km/h (1 Bft) 100,00 %
19.10.2016 08:04 9,1 C 97 % 1018,0 hPa 0,0 l/m 2,7 km/h (1 Bft) S-SW 205 0 min 0,000 mm 0,0 UV-I 11 W/m 8,6 C 9,1 C 4,8 km/h (1 Bft) 97,87 %
19.10.2016 08:06 9,1 C 97 % 1018,0 hPa 0,0 l/m 2,9 km/h (1 Bft) S-SW 205 0 min 0,000 mm 0,0 UV-I 12 W/m 8,6 C 9,1 C 4,8 km/h (1 Bft) 100,00 %
19.10.2016 08:08 9,2 C 97 % 1018,0 hPa 0,0 l/m 3,0 km/h (1 Bft) S-SW 205 0 min 0,000 mm 0,0 UV-I 12 W/m 8,7 C 9,2 C 4,8 km/h (1 Bft) 100,00 %
19.10.2016 08:10 9,2 C 97 % 1018,0 hPa 0,0 l/m 2,2 km/h (1 Bft) S-SW 205 0 min 0,000 mm 0,0 UV-I 12 W/m 8,7 C 9,2 C 4,8 km/h (1 Bft) 100,00 %
19.10.2016 08:12 9,2 C 97 % 1018,0 hPa 0,0 l/m 2,2 km/h (1 Bft) S-SW 205 0 min 0,000 mm 0,0 UV-I 11 W/m 8,7 C 9,2 C 3,2 km/h (1 Bft) 97,87 %
19.10.2016 08:14 9,2 C 97 % 1017,9 hPa 0,0 l/m 1,7 km/h (1 Bft) S-SW 205 0 min 0,000 mm 0,0 UV-I 11 W/m 8,7 C 9,2 C 3,2 km/h (1 Bft) 97,37 %
19.10.2016 08:16 9,2 C 97 % 1018,0 hPa 0,0 l/m 1,9 km/h (1 Bft) S-SW 205 0 min 0,000 mm 0,0 UV-I 11 W/m 8,7 C 9,2 C 3,2 km/h (1 Bft) 96,23 %
19.10.2016 08:18 9,2 C 97 % 1018,0 hPa 0,0 l/m 2,0 km/h (1 Bft) S-SW 205 0 min 0,000 mm 0,0 UV-I 11 W/m 8,7 C 9,2 C 3,2 km/h (1 Bft) 98,11 %
19.10.2016 08:20 9,2 C 97 % 1017,9 hPa 0,0 l/m 1,8 km/h (1 Bft) S-SW 205 0 min 0,000 mm 0,0 UV-I 11 W/m 8,7 C 9,2 C 3,2 km/h (1 Bft) 97,44 %
19.10.2016 08:22 9,2 C 97 % 1018,0 hPa 0,0 l/m 2,2 km/h (1 Bft) S-SW 205 0 min 0,000 mm 0,0 UV-I 11 W/m 8,7 C 9,2 C 3,2 km/h (1 Bft) 98,00 %
19.10.2016 08:24 9,2 C 97 % 1018,0 hPa 0,0 l/m 2,1 km/h (1 Bft) S-SW 205 0 min 0,000 mm 0,0 UV-I 12 W/m 8,7 C 9,2 C 3,2 km/h (1 Bft) 97,87 %
19.10.2016 08:26 9,3 C 97 % 1018,0 hPa 0,0 l/m 2,4 km/h (1 Bft) S-SW 205 0 min 0,000 mm 0,0 UV-I 13 W/m 8,8 C 9,3 C 3,2 km/h (1 Bft) 97,87 %
19.10.2016 08:28 9,3 C 97 % 1018,0 hPa 0,0 l/m 2,4 km/h (1 Bft) S-SW 205 0 min 0,000 mm 0,0 UV-I 15 W/m 8,8 C 9,3 C 3,2 km/h (1 Bft) 98,00 %
19.10.2016 08:30 9,3 C 97 % 1018,0 hPa 0,0 l/m 1,2 km/h (1 Bft) S-SW 205 0 min 0,000 mm 0,0 UV-I 18 W/m 8,8 C 9,3 C 3,2 km/h (1 Bft) 97,37 %
19.10.2016 08:32 9,3 C 97 % 1018,0 hPa 0,0 l/m 1,8 km/h (1 Bft) S-SW 205 0 min 0,000 mm 0,0 UV-I 20 W/m 8,8 C 9,3 C 3,2 km/h (1 Bft) 96,23 %
19.10.2016 08:34 9,3 C 97 % 1018,0 hPa 0,0 l/m 1,6 km/h (1 Bft) S-SW 205 0 min 0,000 mm 0,0 UV-I 22 W/m 8,8 C 9,3 C 3,2 km/h (1 Bft) 95,74 %
19.10.2016 08:36 9,3 C 97 % 1018,0 hPa 0,0 l/m 1,8 km/h (1 Bft) S-SW 205 0 min 0,000 mm 0,0 UV-I 23 W/m 8,8 C 9,3 C 3,2 km/h (1 Bft) 98,00 %
19.10.2016 08:38 9,4 C 97 % 1018,0 hPa 0,0 l/m 2,0 km/h (1 Bft) S-SW 205 0 min 0,000 mm 0,0 UV-I 23 W/m 8,9 C 9,4 C 3,2 km/h (1 Bft) 95,74 %
19.10.2016 08:40 9,4 C 97 % 1018,1 hPa 0,0 l/m 2,5 km/h (1 Bft) S-SW 205 0 min 0,000 mm 0,0 UV-I 23 W/m 8,9 C 9,4 C 3,2 km/h (1 Bft) 94,74 %
19.10.2016 08:42 9,4 C 97 % 1018,0 hPa 0,0 l/m 2,7 km/h (1 Bft) S-SW 205 0 min 0,000 mm 0,0 UV-I 23 W/m 8,9 C 9,4 C 4,8 km/h (1 Bft) 97,87 %
19.10.2016 08:44 9,4 C 97 % 1018,0 hPa 0,0 l/m 2,9 km/h (1 Bft) S-SW 205 0 min 0,000 mm 0,0 UV-I 24 W/m 8,9 C 9,4 C 3,2 km/h (1 Bft) 96,23 %
19.10.2016 08:46 9,4 C 97 % 1018,0 hPa 0,0 l/m 2,2 km/h (1 Bft) S-SW 205 0 min 0,000 mm 0,0 UV-I 28 W/m 8,9 C 9,4 C 3,2 km/h (1 Bft) 95,45 %
19.10.2016 08:48 9,4 C 97 % 1018,1 hPa 0,0 l/m 2,6 km/h (1 Bft) S-SW 205 0 min 0,000 mm 0,0 UV-I 30 W/m 8,9 C 9,4 C 3,2 km/h (1 Bft) 98,00 %
19.10.2016 08:50 9,4 C 97 % 1018,1 hPa 0,0 l/m 2,7 km/h (1 Bft) S-SW 205 0 min 0,000 mm 0,0 UV-I 33 W/m 8,9 C 9,4 C 4,8 km/h (1 Bft) 100,00 %
19.10.2016 08:52 9,4 C 97 % 1018,1 hPa 0,0 l/m 3,6 km/h (1 Bft) S-SW 205 0 min 0,000 mm 0,0 UV-I 34 W/m 8,9 C 9,4 C 4,8 km/h (1 Bft) 100,00 %
19.10.2016 08:54 9,4 C 97 % 1018,0 hPa 0,0 l/m 1,5 km/h (1 Bft) S-SW 205 0 min 0,000 mm 0,0 UV-I 35 W/m 8,9 C 9,4 C 3,2 km/h (1 Bft) 95,74 %
19.10.2016 08:56 9,4 C 97 % 1018,1 hPa 0,0 l/m 2,0 km/h (1 Bft) S-SW 205 0 min 0,000 mm 0,0 UV-I 35 W/m 8,9 C 9,4 C 3,2 km/h (1 Bft) 97,87 %
19.10.2016 08:58 9,5 C 97 % 1018,2 hPa 0,0 l/m 3,2 km/h (1 Bft) S-SW 205 0 min 0,000 mm 0,0 UV-I 37 W/m 9,0 C 9,5 C 4,8 km/h (1 Bft) 100,00 %
19.10.2016 09:00 9,5 C 97 % 1018,2 hPa 0,0 l/m 4,8 km/h (1 Bft) S-SW 205 0 min 0,000 mm 0,0 UV-I 41 W/m 9,0 C 9,5 C 6,4 km/h (2 Bft) 100,00 %
19.10.2016 09:02 9,5 C 97 % 1018,3 hPa 0,0 l/m 4,6 km/h (1 Bft) S-SW 205 0 min 0,000 mm 0,0 UV-I 44 W/m 9,0 C 9,5 C 6,4 km/h (2 Bft) 100,00 %
19.10.2016 09:04 9,6 C 97 % 1018,3 hPa 0,0 l/m 4,3 km/h (1 Bft) S-SW 205 0 min 0,000 mm 0,0 UV-I 42 W/m 9,1 C 9,6 C 6,4 km/h (2 Bft) 100,00 %
19.10.2016 09:06 9,6 C 97 % 1018,3 hPa 0,0 l/m 4,3 km/h (1 Bft) S-SW 205 0 min 0,000 mm 0,0 UV-I 42 W/m 9,1 C 9,6 C 6,4 km/h (2 Bft) 96,23 %
19.10.2016 09:08 9,6 C 97 % 1018,3 hPa 0,0 l/m 5,4 km/h (1 Bft) S-SW 205 0 min 0,000 mm 0,0 UV-I 40 W/m 9,1 C 9,6 C 6,4 km/h (2 Bft) 100,00 %
19.10.2016 09:10 9,6 C 97 % 1018,3 hPa 0,0 l/m 3,8 km/h (1 Bft) S-SW 205 0 min 0,000 mm 0,0 UV-I 39 W/m 9,1 C 9,6 C 6,4 km/h (2 Bft) 98,11 %
19.10.2016 09:12 9,6 C 97 % 1018,3 hPa 0,0 l/m 4,6 km/h (1 Bft) S-SW 205 0 min 0,000 mm 0,0 UV-I 37 W/m 9,1 C 9,6 C 6,4 km/h (2 Bft) 100,00 %
19.10.2016 09:14 9,7 C 97 % 1018,3 hPa 0,0 l/m 5,4 km/h (1 Bft) S-SW 205 0 min 0,000 mm 0,0 UV-I 35 W/m 9,2 C 9,7 C 8,0 km/h (2 Bft) 96,00 %
19.10.2016 09:16 9,7 C 97 % 1018,3 hPa 0,0 l/m 5,1 km/h (1 Bft) S-SW 205 0 min 0,000 mm 0,0 UV-I 34 W/m 9,2 C 9,7 C 6,4 km/h (2 Bft) 100,00 %
19.10.2016 09:18 9,7 C 97 % 1018,4 hPa 0,0 l/m 5,2 km/h (1 Bft) S-SW 208 0 min 0,000 mm 0,0 UV-I 32 W/m 9,2 C 9,7 C 6,4 km/h (2 Bft) 100,00 %
19.10.2016 09:20 9,7 C 97 % 1018,3 hPa 0,0 l/m 3,5 km/h (1 Bft) S-SW 208 0 min 0,000 mm 0,0 UV-I 30 W/m 9,2 C 9,7 C 4,8 km/h (1 Bft) 100,00 %
19.10.2016 09:22 9,7 C 97 % 1018,3 hPa 0,0 l/m 2,9 km/h (1 Bft) S-SW 208 0 min 0,000 mm 0,0 UV-I 29 W/m 9,2 C 9,7 C 4,8 km/h (1 Bft) 100,00 %
19.10.2016 09:24 9,7 C 97 % 1018,4 hPa 0,0 l/m 4,9 km/h (1 Bft) S-SW 205 0 min 0,000 mm 0,0 UV-I 25 W/m 9,2 C 9,7 C 9,7 km/h (2 Bft) 100,00 %
19.10.2016 09:26 9,7 C 97 % 1018,4 hPa 0,0 l/m 6,2 km/h (2 Bft) S-SW 209 0 min 0,000 mm 0,0 UV-I 23 W/m 9,2 C 9,7 C 9,7 km/h (2 Bft) 100,00 %
19.10.2016 09:28 9,8 C 97 % 1018,3 hPa 0,0 l/m 4,1 km/h (1 Bft) S-SW 209 0 min 0,000 mm 0,0 UV-I 24 W/m 9,3 C 9,8 C 8,0 km/h (2 Bft) 97,37 %
19.10.2016 09:30 9,8 C 97 % 1018,3 hPa 0,0 l/m 3,9 km/h (1 Bft) SW 214 0 min 0,000 mm 0,0 UV-I 23 W/m 9,3 C 9,8 C 8,0 km/h (2 Bft) 100,00 %
19.10.2016 09:32 9,8 C 96 % 1018,2 hPa 0,0 l/m 2,8 km/h (1 Bft) S-SW 208 0 min 0,000 mm 0,0 UV-I 26 W/m 9,2 C 9,8 C 4,8 km/h (1 Bft) 100,00 %
19.10.2016 09:34 9,8 C 96 % 1018,3 hPa 0,2 l/m 4,9 km/h (1 Bft) S-SO 167 0 min 0,000 mm 0,0 UV-I 27 W/m 9,2 C 9,8 C 8,0 km/h (2 Bft) 100,00 %
19.10.2016 09:36 9,8 C 96 % 1018,3 hPa 0,0 l/m 4,2 km/h (1 Bft) S-SW 202 0 min 0,000 mm 0,0 UV-I 24 W/m 9,2 C 9,8 C 6,4 km/h (2 Bft) 100,00 %
19.10.2016 09:38 9,8 C 96 % 1018,4 hPa 0,0 l/m 4,8 km/h (1 Bft) S-SW 192 0 min 0,000 mm 0,0 UV-I 21 W/m 9,2 C 9,8 C 8,0 km/h (2 Bft) 100,00 %
19.10.2016 09:40 9,8 C 96 % 1018,4 hPa 0,0 l/m 4,1 km/h (1 Bft) S-SW 192 0 min 0,000 mm 0,0 UV-I 22 W/m 9,2 C 9,8 C 4,8 km/h (1 Bft) 100,00 %
19.10.2016 09:42 9,8 C 96 % 1018,4 hPa 0,0 l/m 4,0 km/h (1 Bft) S-SW 211 0 min 0,000 mm 0,0 UV-I 23 W/m 9,2 C 9,8 C 6,4 km/h (2 Bft) 97,87 %
19.10.2016 09:44 9,9 C 96 % 1018,4 hPa 0,0 l/m 5,7 km/h (1 Bft) S-SW 207 0 min 0,000 mm 0,0 UV-I 23 W/m 9,3 C 9,9 C 9,7 km/h (2 Bft) 97,56 %
19.10.2016 09:46 10,0 C 96 % 1018,4 hPa 0,0 l/m 5,8 km/h (2 Bft) S-SW 212 0 min 0,000 mm 0,0 UV-I 23 W/m 9,4 C 10,0 C 11,3 km/h (2 Bft) 100,00 %
19.10.2016 09:48 10,1 C 96 % 1018,5 hPa 0,0 l/m 6,5 km/h (2 Bft) S-SW 210 0 min 0,000 mm 0,0 UV-I 25 W/m 9,5 C 10,1 C 11,3 km/h (2 Bft) 100,00 %
19.10.2016 09:50 10,1 C 96 % 1018,5 hPa 0,0 l/m 5,7 km/h (1 Bft) S-SW 196 0 min 0,000 mm 0,0 UV-I 24 W/m 9,5 C 10,1 C 9,7 km/h (2 Bft) 100,00 %
19.10.2016 09:52 10,2 C 96 % 1018,5 hPa 0,0 l/m 6,4 km/h (2 Bft) S-SW 203 0 min 0,000 mm 0,0 UV-I 25 W/m 9,6 C 10,2 C 9,7 km/h (2 Bft) 100,00 %
19.10.2016 09:54 10,2 C 96 % 1018,5 hPa 0,0 l/m 4,9 km/h (1 Bft) S-SW 204 0 min 0,000 mm 0,0 UV-I 29 W/m 9,6 C 10,2 C 8,0 km/h (2 Bft) 97,87 %
19.10.2016 09:56 10,1 C 95 % 1018,5 hPa 0,0 l/m 5,9 km/h (2 Bft) S-SW 209 0 min 0,000 mm 0,0 UV-I 32 W/m 9,3 C 10,1 C 9,7 km/h (2 Bft) 100,00 %
19.10.2016 09:58 10,1 C 95 % 1018,6 hPa 0,0 l/m 5,8 km/h (2 Bft) S-SW 197 0 min 0,000 mm 0,0 UV-I 33 W/m 9,3 C 10,1 C 9,7 km/h (2 Bft) 100,00 %
19.10.2016 10:00 10,1 C 95 % 1018,6 hPa 0,2 l/m 3,2 km/h (1 Bft) S-SO 167 0 min 0,000 mm 0,0 UV-I 36 W/m 9,3 C 10,1 C 6,4 km/h (2 Bft) 98,00 %
19.10.2016 10:02 10,0 C 95 % 1018,6 hPa 0,0 l/m 4,9 km/h (1 Bft) S 188 0 min 0,025 mm 0,0 UV-I 39 W/m 9,2 C 10,0 C 11,3 km/h (2 Bft) 100,00 %
19.10.2016 10:04 10,0 C 95 % 1018,5 hPa 0,0 l/m 5,6 km/h (1 Bft) S-SO 165 0 min 0,000 mm 0,0 UV-I 43 W/m 9,2 C 10,0 C 9,7 km/h (2 Bft) 100,00 %
19.10.2016 10:06 10,0 C 95 % 1018,5 hPa 0,0 l/m 5,2 km/h (1 Bft) S-SO 156 0 min 0,000 mm 0,0 UV-I 48 W/m 9,2 C 10,0 C 9,7 km/h (2 Bft) 98,00 %
19.10.2016 10:08 10,0 C 95 % 1018,5 hPa 0,0 l/m 5,8 km/h (2 Bft) S-SO 158 0 min 0,000 mm 0,0 UV-I 48 W/m 9,2 C 10,0 C 9,7 km/h (2 Bft) 100,00 %
19.10.2016 10:10 10,0 C 95 % 1018,5 hPa 0,0 l/m 6,1 km/h (2 Bft) S-SO 158 0 min 0,000 mm 0,0 UV-I 46 W/m 9,2 C 10,0 C 9,7 km/h (2 Bft) 100,00 %
19.10.2016 10:12 10,0 C 95 % 1018,5 hPa 0,2 l/m 8,0 km/h (2 Bft) S-SO 162 0 min 0,000 mm 0,0 UV-I 46 W/m 9,2 C 8,9 C 14,5 km/h (3 Bft) 100,00 %
19.10.2016 10:14 10,0 C 95 % 1018,5 hPa 0,0 l/m 6,4 km/h (2 Bft) S 171 0 min 0,000 mm 0,0 UV-I 50 W/m 9,2 C 10,0 C 12,9 km/h (3 Bft) 95,24 %
19.10.2016 10:15 10,0 C 95 % 1018,5 hPa 0,2 l/m 6,4 km/h (2 Bft) S-SO 157 0 min 0,000 mm 0,0 UV-I 50 W/m 9,2 C 10,0 C 14,5 km/h (3 Bft) 100,00 %
19.10.2016 10:20 10,1 C 95 % 1018,5 hPa 0,0 l/m 8,0 km/h (2 Bft) S 180 0 min 0,000 mm 0,0 UV-I 52 W/m 9,3 C 9,0 C 17,7 km/h (3 Bft) 100,00 %
19.10.2016 10:24 10,1 C 95 % 1018,5 hPa 0,0 l/m 11,2 km/h (2 Bft) S-SW 194 0 min 0,000 mm 0,0 UV-I 47 W/m 9,3 C 7,0 C 16,1 km/h (3 Bft) 98,28 %
19.10.2016 10:26 10,1 C 94 % 1018,5 hPa 0,0 l/m 9,7 km/h (2 Bft) SW 215 0 min 0,000 mm 0,0 UV-I 47 W/m 9,2 C 7,9 C 14,5 km/h (3 Bft) 97,14 %
19.10.2016 10:28 10,1 C 94 % 1018,5 hPa 0,0 l/m 7,6 km/h (2 Bft) S-SO 167 0 min 0,000 mm 0,0 UV-I 47 W/m 9,2 C 9,2 C 12,9 km/h (3 Bft) 98,11 %
19.10.2016 10:30 10,1 C 94 % 1018,5 hPa 0,0 l/m 10,7 km/h (2 Bft) S-SW 198 0 min 0,000 mm 0,0 UV-I 49 W/m 9,2 C 7,3 C 19,3 km/h (3 Bft) 98,00 %
19.10.2016 10:32 10,1 C 94 % 1018,5 hPa 0,0 l/m 7,0 km/h (2 Bft) S-SW 195 0 min 0,000 mm 0,0 UV-I 54 W/m 9,2 C 9,7 C 14,5 km/h (3 Bft) 97,73 %
19.10.2016 10:34 10,1 C 94 % 1018,6 hPa 0,0 l/m 8,1 km/h (2 Bft) S 181 0 min 0,000 mm 0,0 UV-I 56 W/m 9,2 C 8,9 C 14,5 km/h (3 Bft) 95,74 %
19.10.2016 10:36 10,1 C 94 % 1018,6 hPa 0,0 l/m 9,4 km/h (2 Bft) SO 136 0 min 0,000 mm 0,0 UV-I 56 W/m 9,2 C 8,1 C 19,3 km/h (3 Bft) 98,00 %
19.10.2016 10:38 10,1 C 94 % 1018,6 hPa 0,0 l/m 10,9 km/h (2 Bft) S 181 0 min 0,000 mm 0,0 UV-I 54 W/m 9,2 C 7,2 C 24,1 km/h (4 Bft) 98,00 %
19.10.2016 10:40 10,1 C 94 % 1018,6 hPa 0,0 l/m 12,2 km/h (2 Bft) S-SW 192 0 min 0,000 mm 0,0 UV-I 55 W/m 9,2 C 6,5 C 20,9 km/h (4 Bft) 97,44 %
19.10.2016 10:42 10,2 C 94 % 1018,6 hPa 0,0 l/m 9,7 km/h (2 Bft) S 189 0 min 0,000 mm 0,0 UV-I 65 W/m 9,3 C 8,0 C 19,3 km/h (3 Bft) 98,08 %
19.10.2016 10:44 10,2 C 94 % 1018,6 hPa 0,0 l/m 13,8 km/h (3 Bft) S-SO 159 0 min 0,000 mm 0,0 UV-I 70 W/m 9,3 C 5,9 C 27,4 km/h (4 Bft) 97,62 %
19.10.2016 10:46 10,2 C 94 % 1018,6 hPa 0,0 l/m 8,6 km/h (2 Bft) S-SO 149 0 min 0,000 mm 0,0 UV-I 69 W/m 9,3 C 8,7 C 14,5 km/h (3 Bft) 95,45 %
19.10.2016 10:48 10,2 C 94 % 1018,6 hPa 0,0 l/m 9,4 km/h (2 Bft) S-SO 166 0 min 0,000 mm 0,0 UV-I 68 W/m 9,3 C 8,2 C 17,7 km/h (3 Bft) 100,00 %
19.10.2016 10:50 10,3 C 94 % 1018,6 hPa 0,0 l/m 7,8 km/h (2 Bft) S 188 0 min 0,000 mm 0,0 UV-I 67 W/m 9,4 C 9,3 C 16,1 km/h (3 Bft) 97,87 %
19.10.2016 10:52 10,3 C 94 % 1018,5 hPa 0,0 l/m 9,5 km/h (2 Bft) S 178 0 min 0,000 mm 0,0 UV-I 65 W/m 9,4 C 8,2 C 19,3 km/h (3 Bft) 94,00 %
19.10.2016 10:54 10,3 C 93 % 1018,6 hPa 0,0 l/m 9,8 km/h (2 Bft) S-SW 193 0 min 0,000 mm 0,0 UV-I 67 W/m 9,2 C 8,0 C 16,1 km/h (3 Bft) 100,00 %
19.10.2016 10:56 10,3 C 93 % 1018,6 hPa 0,0 l/m 10,5 km/h (2 Bft) S-SO 148 0 min 0,000 mm 0,0 UV-I 69 W/m 9,2 C 7,6 C 20,9 km/h (4 Bft) 98,11 %
19.10.2016 10:58 10,3 C 93 % 1018,6 hPa 0,0 l/m 9,4 km/h (2 Bft) SW 224 0 min 0,000 mm 0,0 UV-I 70 W/m 9,2 C 8,3 C 16,1 km/h (3 Bft) 100,00 %
19.10.2016 11:00 10,3 C 93 % 1018,6 hPa 0,0 l/m 10,7 km/h (2 Bft) S-SO 161 0 min 0,000 mm 0,0 UV-I 69 W/m 9,2 C 7,5 C 20,9 km/h (4 Bft) 98,11 %
19.10.2016 11:02 10,3 C 93 % 1018,5 hPa 0,0 l/m 10,4 km/h (2 Bft) S-SO 151 0 min 0,026 mm 0,0 UV-I 68 W/m 9,2 C 7,7 C 19,3 km/h (3 Bft) 97,56 %
19.10.2016 11:04 10,4 C 93 % 1018,5 hPa 0,0 l/m 10,4 km/h (2 Bft) S-SO 157 0 min 0,000 mm 0,0 UV-I 67 W/m 9,3 C 7,8 C 19,3 km/h (3 Bft) 100,00 %
19.10.2016 11:06 10,3 C 92 % 1018,5 hPa 0,0 l/m 8,8 km/h (2 Bft) S 171 0 min 0,000 mm 0,0 UV-I 66 W/m 9,1 C 8,6 C 16,1 km/h (3 Bft) 97,87 %
19.10.2016 11:08 10,3 C 92 % 1018,5 hPa 0,0 l/m 8,2 km/h (2 Bft) S-SW 209 0 min 0,000 mm 0,0 UV-I 70 W/m 9,1 C 9,0 C 12,9 km/h (3 Bft) 100,00 %
19.10.2016 11:10 10,4 C 92 % 1018,5 hPa 0,0 l/m 8,2 km/h (2 Bft) S-SO 155 0 min 0,000 mm 0,0 UV-I 76 W/m 9,2 C 9,1 C 14,5 km/h (3 Bft) 98,00 %
19.10.2016 11:12 10,4 C 92 % 1018,5 hPa 0,0 l/m 7,9 km/h (2 Bft) S 190 0 min 0,000 mm 0,0 UV-I 83 W/m 9,2 C 9,3 C 16,1 km/h (3 Bft) 100,00 %
19.10.2016 11:14 10,4 C 92 % 1018,5 hPa 0,0 l/m 7,7 km/h (2 Bft) S 169 0 min 0,000 mm 0,0 UV-I 89 W/m 9,2 C 9,5 C 16,1 km/h (3 Bft) 100,00 %
19.10.2016 11:16 10,4 C 92 % 1018,5 hPa 0,0 l/m 9,9 km/h (2 Bft) S 170 0 min 0,000 mm 0,0 UV-I 99 W/m 9,2 C 8,1 C 19,3 km/h (3 Bft) 100,00 %
19.10.2016 11:18 10,4 C 92 % 1018,5 hPa 0,0 l/m 11,0 km/h (2 Bft) S-SW 196 0 min 0,000 mm 0,0 UV-I 108 W/m 9,2 C 7,5 C 17,7 km/h (3 Bft) 97,22 %
19.10.2016 11:20 10,4 C 91 % 1018,5 hPa 0,0 l/m 8,8 km/h (2 Bft) S 180 0 min 0,000 mm 0,4 UV-I 114 W/m 9,0 C 8,8 C 20,9 km/h (4 Bft) 100,00 %
19.10.2016 11:22 10,4 C 91 % 1018,5 hPa 0,0 l/m 7,6 km/h (2 Bft) S-SW 209 0 min 0,000 mm 0,5 UV-I 114 W/m 9,0 C 9,5 C 12,9 km/h (3 Bft) 100,00 %
19.10.2016 11:24 10,4 C 91 % 1018,5 hPa 0,0 l/m 10,1 km/h (2 Bft) S-SO 164 0 min 0,000 mm 0,5 UV-I 114 W/m 9,0 C 8,0 C 16,1 km/h (3 Bft) 97,37 %
19.10.2016 11:26 10,5 C 90 % 1018,5 hPa 0,0 l/m 9,5 km/h (2 Bft) SW 217 0 min 0,000 mm 0,5 UV-I 113 W/m 8,9 C 8,4 C 16,1 km/h (3 Bft) 100,00 %
19.10.2016 11:29 10,4 C 90 % 1018,6 hPa 0,0 l/m 9,5 km/h (2 Bft) S-SW 192 0 min 0,000 mm 0,5 UV-I 114 W/m 8,8 C 8,3 C 19,3 km/h (3 Bft) 100,00 %
19.10.2016 11:30 10,4 C 91 % 1018,6 hPa 0,0 l/m 8,7 km/h (2 Bft) SW 227 0 min 0,000 mm 0,5 UV-I 112 W/m 9,0 C 8,8 C 12,9 km/h (3 Bft) 100,00 %
19.10.2016 11:32 10,4 C 91 % 1018,5 hPa 0,0 l/m 11,4 km/h (2 Bft) S-SW 202 0 min 0,000 mm 0,1 UV-I 103 W/m 9,0 C 7,3 C 20,9 km/h (4 Bft) 100,00 %
19.10.2016 11:34 10,4 C 91 % 1018,6 hPa 0,0 l/m 12,4 km/h (3 Bft) S-SW 209 0 min 0,000 mm 0,0 UV-I 76 W/m 9,0 C 6,8 C 17,7 km/h (3 Bft) 100,00 %
19.10.2016 11:36 10,3 C 91 % 1018,6 hPa 0,0 l/m 13,2 km/h (3 Bft) S-SW 200 0 min 0,000 mm 0,0 UV-I 65 W/m 8,9 C 6,3 C 20,9 km/h (4 Bft) 100,00 %
19.10.2016 11:38 10,3 C 91 % 1018,7 hPa 0,0 l/m 10,2 km/h (2 Bft) W-SW 237 0 min 0,000 mm 0,0 UV-I 78 W/m 8,9 C 7,8 C 16,1 km/h (3 Bft) 100,00 %
19.10.2016 11:40 10,3 C 91 % 1018,7 hPa 0,2 l/m 8,4 km/h (2 Bft) W-SW 241 0 min 0,000 mm 0,0 UV-I 65 W/m 8,9 C 8,9 C 14,5 km/h (3 Bft) 100,00 %
19.10.2016 11:42 10,2 C 91 % 1018,7 hPa 0,0 l/m 14,4 km/h (3 Bft) SW 235 0 min 0,000 mm 0,0 UV-I 51 W/m 8,8 C 5,6 C 20,9 km/h (4 Bft) 100,00 %
19.10.2016 11:44 10,1 C 91 % 1018,7 hPa 0,0 l/m 7,9 km/h (2 Bft) S-SW 194 0 min 0,000 mm 0,0 UV-I 67 W/m 8,7 C 9,0 C 11,3 km/h (2 Bft) 100,00 %
19.10.2016 11:46 10,1 C 92 % 1018,7 hPa 0,0 l/m 8,6 km/h (2 Bft) S 183 0 min 0,000 mm 0,0 UV-I 78 W/m 8,9 C 8,6 C 14,5 km/h (3 Bft) 100,00 %
19.10.2016 11:48 10,0 C 92 % 1018,6 hPa 0,2 l/m 10,2 km/h (2 Bft) SW 220 0 min 0,000 mm 0,0 UV-I 81 W/m 8,8 C 7,5 C 17,7 km/h (3 Bft) 100,00 %
19.10.2016 11:50 9,9 C 92 % 1018,6 hPa 0,0 l/m 11,4 km/h (2 Bft) S-SW 212 0 min 0,000 mm 0,0 UV-I 80 W/m 8,7 C 6,7 C 20,9 km/h (4 Bft) 100,00 %
19.10.2016 11:52 9,9 C 92 % 1018,5 hPa 0,0 l/m 9,1 km/h (2 Bft) S-SW 203 0 min 0,000 mm 0,0 UV-I 94 W/m 8,7 C 8,0 C 14,5 km/h (3 Bft) 100,00 %
19.10.2016 11:54 9,9 C 93 % 1018,5 hPa 0,0 l/m 9,3 km/h (2 Bft) S 184 0 min 0,000 mm 0,2 UV-I 105 W/m 8,8 C 7,9 C 14,5 km/h (3 Bft) 100,00 %
19.10.2016 11:56 9,9 C 92 % 1018,5 hPa 0,2 l/m 8,1 km/h (2 Bft) SW 219 0 min 0,000 mm 0,0 UV-I 103 W/m 8,7 C 8,7 C 16,1 km/h (3 Bft) 97,56 %
19.10.2016 11:58 9,9 C 93 % 1018,5 hPa 0,0 l/m 9,0 km/h (2 Bft) S-SW 196 0 min 0,000 mm 0,0 UV-I 97 W/m 8,8 C 8,1 C 14,5 km/h (3 Bft) 100,00 %
19.10.2016 12:00 9,9 C 92 % 1018,5 hPa 0,0 l/m 4,4 km/h (1 Bft) S 189 0 min 0,051 mm 0,0 UV-I 81 W/m 8,7 C 9,9 C 8,0 km/h (2 Bft) 98,11 %
19.10.2016 12:02 9,9 C 92 % 1018,5 hPa 0,0 l/m 8,3 km/h (2 Bft) S-SW 199 0 min 0,000 mm 0,0 UV-I 64 W/m 8,7 C 8,5 C 14,5 km/h (3 Bft) 97,87 %
19.10.2016 12:04 9,9 C 93 % 1018,5 hPa 0,0 l/m 7,0 km/h (2 Bft) S-SW 200 0 min 0,000 mm 0,0 UV-I 63 W/m 8,8 C 9,5 C 12,9 km/h (3 Bft) 98,00 %
19.10.2016 12:06 9,9 C 92 % 1018,5 hPa 0,0 l/m 5,1 km/h (1 Bft) S 182 0 min 0,000 mm 0,0 UV-I 85 W/m 8,7 C 9,9 C 11,3 km/h (2 Bft) 97,37 %
19.10.2016 12:09 9,9 C 93 % 1018,5 hPa 0,2 l/m 8,9 km/h (2 Bft) SW 217 0 min 0,000 mm 0,0 UV-I 97 W/m 8,8 C 8,2 C 19,3 km/h (3 Bft) 100,00 %
19.10.2016 12:10 9,9 C 92 % 1018,5 hPa 0,0 l/m 11,3 km/h (2 Bft) S 178 0 min 0,000 mm 0,0 UV-I 98 W/m 8,7 C 6,8 C 14,5 km/h (3 Bft) 100,00 %
19.10.2016 12:12 10,0 C 93 % 1018,5 hPa 0,0 l/m 10,7 km/h (2 Bft) S-SW 200 0 min 0,000 mm 0,0 UV-I 98 W/m 8,9 C 7,2 C 14,5 km/h (3 Bft) 100,00 %
19.10.2016 12:14 10,0 C 93 % 1018,4 hPa 0,0 l/m 8,6 km/h (2 Bft) S-SW 207 0 min 0,000 mm 0,0 UV-I 100 W/m 8,9 C 8,5 C 12,9 km/h (3 Bft) 98,00 %
19.10.2016 12:16 10,1 C 93 % 1018,5 hPa 0,0 l/m 9,7 km/h (2 Bft) SW 216 0 min 0,000 mm 0,0 UV-I 104 W/m 9,0 C 7,9 C 17,7 km/h (3 Bft) 95,74 %
19.10.2016 12:18 10,0 C 93 % 1018,4 hPa 0,0 l/m 7,6 km/h (2 Bft) S-SW 207 0 min 0,000 mm 0,0 UV-I 102 W/m 8,9 C 9,1 C 14,5 km/h (3 Bft) 100,00 %
19.10.2016 12:20 10,1 C 93 % 1018,4 hPa 0,0 l/m 9,6 km/h (2 Bft) S-SW 211 0 min 0,000 mm 0,0 UV-I 100 W/m 9,0 C 7,9 C 12,9 km/h (3 Bft) 95,74 %
19.10.2016 12:22 10,1 C 93 % 1018,4 hPa 0,0 l/m 7,3 km/h (2 Bft) S 185 0 min 0,000 mm 0,0 UV-I 104 W/m 9,0 C 9,4 C 12,9 km/h (3 Bft) 98,00 %
19.10.2016 12:24 10,1 C 93 % 1018,3 hPa 0,2 l/m 9,7 km/h (2 Bft) S 190 0 min 0,000 mm 0,2 UV-I 108 W/m 9,0 C 7,9 C 16,1 km/h (3 Bft) 98,00 %
19.10.2016 12:26 10,1 C 93 % 1018,4 hPa 0,0 l/m 7,2 km/h (2 Bft) S-SW 193 0 min 0,000 mm 0,5 UV-I 112 W/m 9,0 C 9,5 C 14,5 km/h (3 Bft) 97,56 %
19.10.2016 12:28 10,1 C 93 % 1018,4 hPa 0,0 l/m 8,2 km/h (2 Bft) S-SW 213 0 min 0,000 mm 0,5 UV-I 116 W/m 9,0 C 8,8 C 16,1 km/h (3 Bft) 98,11 %
19.10.2016 12:30 10,1 C 93 % 1018,3 hPa 0,0 l/m 9,3 km/h (2 Bft) SW 231 0 min 0,000 mm 0,5 UV-I 117 W/m 9,0 C 8,1 C 16,1 km/h (3 Bft) 98,00 %
19.10.2016 12:32 10,1 C 93 % 1018,3 hPa 0,0 l/m 6,3 km/h (2 Bft) W-SW 237 0 min 0,000 mm 0,5 UV-I 111 W/m 9,0 C 10,1 C 11,3 km/h (2 Bft) 97,37 %
19.10.2016 12:34 10,1 C 93 % 1018,2 hPa 0,0 l/m 9,1 km/h (2 Bft) S-SW 205 0 min 0,000 mm 0,5 UV-I 112 W/m 9,0 C 8,2 C 14,5 km/h (3 Bft) 98,00 %
19.10.2016 12:36 10,1 C 93 % 1018,2 hPa 0,0 l/m 9,7 km/h (2 Bft) S-SW 206 0 min 0,000 mm 0,5 UV-I 112 W/m 9,0 C 7,9 C 16,1 km/h (3 Bft) 96,00 %
19.10.2016 12:38 10,1 C 93 % 1018,2 hPa 0,0 l/m 11,4 km/h (2 Bft) SW 227 0 min 0,000 mm 0,5 UV-I 116 W/m 9,0 C 6,9 C 17,7 km/h (3 Bft) 97,87 %
19.10.2016 12:40 10,1 C 93 % 1018,1 hPa 0,0 l/m 10,5 km/h (2 Bft) S-SW 194 0 min 0,000 mm 0,5 UV-I 119 W/m 9,0 C 7,4 C 16,1 km/h (3 Bft) 97,78 %
19.10.2016 12:42 10,2 C 93 % 1018,1 hPa 0,2 l/m 9,9 km/h (2 Bft) SW 227 0 min 0,000 mm 0,5 UV-I 113 W/m 9,1 C 7,9 C 14,5 km/h (3 Bft) 98,00 %
19.10.2016 12:44 10,1 C 93 % 1018,1 hPa 0,0 l/m 10,8 km/h (2 Bft) S-SW 211 0 min 0,000 mm 0,2 UV-I 103 W/m 9,0 C 7,3 C 14,5 km/h (3 Bft) 97,37 %
19.10.2016 12:46 10,2 C 93 % 1018,1 hPa 0,0 l/m 11,5 km/h (2 Bft) S-SW 205 0 min 0,000 mm 0,0 UV-I 98 W/m 9,1 C 7,0 C 19,3 km/h (3 Bft) 97,87 %
19.10.2016 12:48 10,2 C 93 % 1018,0 hPa 0,0 l/m 8,8 km/h (2 Bft) SW 234 0 min 0,000 mm 0,0 UV-I 98 W/m 9,1 C 8,5 C 14,5 km/h (3 Bft) 97,87 %
19.10.2016 12:50 10,2 C 92 % 1018,1 hPa 0,0 l/m 8,5 km/h (2 Bft) S-SW 205 0 min 0,000 mm 0,0 UV-I 103 W/m 9,0 C 8,7 C 12,9 km/h (3 Bft) 98,11 %
19.10.2016 12:52 10,2 C 92 % 1018,0 hPa 0,0 l/m 10,1 km/h (2 Bft) S-SW 201 0 min 0,000 mm 0,2 UV-I 105 W/m 9,0 C 7,8 C 20,9 km/h (4 Bft) 100,00 %
19.10.2016 12:54 10,2 C 92 % 1018,0 hPa 0,0 l/m 9,5 km/h (2 Bft) S 188 0 min 0,000 mm 0,0 UV-I 101 W/m 9,0 C 8,1 C 16,1 km/h (3 Bft) 98,11 %
19.10.2016 12:56 10,2 C 92 % 1018,0 hPa 0,0 l/m 8,3 km/h (2 Bft) S-SW 208 0 min 0,000 mm 0,0 UV-I 97 W/m 9,0 C 8,9 C 14,5 km/h (3 Bft) 100,00 %
19.10.2016 12:58 10,2 C 92 % 1018,0 hPa 0,0 l/m 7,6 km/h (2 Bft) S-SW 206 0 min 0,000 mm 0,0 UV-I 91 W/m 9,0 C 9,3 C 11,3 km/h (2 Bft) 100,00 %
19.10.2016 13:00 10,2 C 92 % 1018,0 hPa 0,0 l/m 7,4 km/h (2 Bft) SW 215 0 min 0,050 mm 0,0 UV-I 90 W/m 9,0 C 9,5 C 12,9 km/h (3 Bft) 98,00 %
19.10.2016 13:02 10,2 C 93 % 1018,0 hPa 0,0 l/m 4,5 km/h (1 Bft) S-SW 199 0 min 0,000 mm 0,0 UV-I 92 W/m 9,1 C 10,2 C 8,0 km/h (2 Bft) 100,00 %
19.10.2016 13:04 10,2 C 93 % 1018,0 hPa 0,0 l/m 6,0 km/h (2 Bft) S 169 0 min 0,000 mm 0,0 UV-I 92 W/m 9,1 C 10,2 C 11,3 km/h (2 Bft) 100,00 %
19.10.2016 13:06 10,2 C 92 % 1017,9 hPa 0,0 l/m 6,9 km/h (2 Bft) SW 236 0 min 0,000 mm 0,0 UV-I 96 W/m 9,0 C 9,8 C 14,5 km/h (3 Bft) 97,37 %
19.10.2016 13:08 10,2 C 93 % 1017,9 hPa 0,0 l/m 7,9 km/h (2 Bft) S 182 0 min 0,000 mm 0,1 UV-I 103 W/m 9,1 C 9,1 C 12,9 km/h (3 Bft) 100,00 %
19.10.2016 13:10 10,2 C 93 % 1017,9 hPa 0,0 l/m 6,2 km/h (2 Bft) S 181 0 min 0,000 mm 0,5 UV-I 107 W/m 9,1 C 10,2 C 9,7 km/h (2 Bft) 100,00 %
19.10.2016 13:12 10,3 C 93 % 1017,9 hPa 0,0 l/m 8,5 km/h (2 Bft) S-SW 213 0 min 0,000 mm 0,5 UV-I 108 W/m 9,2 C 8,8 C 14,5 km/h (3 Bft) 100,00 %
19.10.2016 13:14 10,3 C 93 % 1017,8 hPa 0,0 l/m 6,2 km/h (2 Bft) S 173 0 min 0,000 mm 0,4 UV-I 106 W/m 9,2 C 10,3 C 11,3 km/h (2 Bft) 97,44 %
19.10.2016 13:16 10,3 C 93 % 1017,9 hPa 0,0 l/m 8,8 km/h (2 Bft) SW 219 0 min 0,000 mm 0,0 UV-I 101 W/m 9,2 C 8,6 C 14,5 km/h (3 Bft) 97,96 %
19.10.2016 13:18 10,3 C 93 % 1017,8 hPa 0,0 l/m 11,0 km/h (2 Bft) SW 221 0 min 0,000 mm 0,0 UV-I 93 W/m 9,2 C 7,4 C 16,1 km/h (3 Bft) 97,62 %
19.10.2016 13:20 10,3 C 92 % 1017,9 hPa 0,2 l/m 6,9 km/h (2 Bft) S-SW 207 0 min 0,000 mm 0,0 UV-I 78 W/m 9,1 C 9,9 C 11,3 km/h (2 Bft) 100,00 %
19.10.2016 13:22 10,3 C 92 % 1017,8 hPa 0,0 l/m 7,5 km/h (2 Bft) SW 215 0 min 0,000 mm 0,0 UV-I 76 W/m 9,1 C 9,5 C 11,3 km/h (2 Bft) 100,00 %
19.10.2016 13:24 10,3 C 92 % 1017,8 hPa 0,0 l/m 6,8 km/h (2 Bft) S 173 0 min 0,000 mm 0,0 UV-I 79 W/m 9,1 C 10,0 C 11,3 km/h (2 Bft) 94,74 %
19.10.2016 13:26 10,3 C 92 % 1017,8 hPa 0,0 l/m 9,6 km/h (2 Bft) SW 235 0 min 0,000 mm 0,0 UV-I 81 W/m 9,1 C 8,2 C 14,5 km/h (3 Bft) 100,00 %
19.10.2016 13:28 10,3 C 92 % 1017,8 hPa 0,0 l/m 10,7 km/h (2 Bft) S-SW 204 0 min 0,000 mm 0,0 UV-I 78 W/m 9,1 C 7,5 C 16,1 km/h (3 Bft) 100,00 %
19.10.2016 13:30 10,3 C 91 % 1017,8 hPa 0,0 l/m 9,6 km/h (2 Bft) SW 217 0 min 0,000 mm 0,0 UV-I 73 W/m 8,9 C 8,2 C 14,5 km/h (3 Bft) 94,74 %
19.10.2016 13:32 10,3 C 92 % 1017,7 hPa 0,0 l/m 7,0 km/h (2 Bft) S 189 0 min 0,000 mm 0,0 UV-I 68 W/m 9,1 C 9,9 C 14,5 km/h (3 Bft) 100,00 %
19.10.2016 13:34 10,3 C 92 % 1017,7 hPa 0,0 l/m 7,4 km/h (2 Bft) SW 222 0 min 0,000 mm 0,0 UV-I 77 W/m 9,1 C 9,6 C 14,5 km/h (3 Bft) 100,00 %
19.10.2016 13:36 10,3 C 91 % 1017,7 hPa 0,0 l/m 12,7 km/h (3 Bft) S 182 0 min 0,000 mm 0,0 UV-I 84 W/m 8,9 C 6,5 C 17,7 km/h (3 Bft) 100,00 %
19.10.2016 13:38 10,3 C 92 % 1017,6 hPa 0,2 l/m 9,6 km/h (2 Bft) S-SW 198 0 min 0,000 mm 0,0 UV-I 86 W/m 9,1 C 8,2 C 17,7 km/h (3 Bft) 100,00 %
19.10.2016 13:40 10,3 C 92 % 1017,7 hPa 0,0 l/m 9,0 km/h (2 Bft) SW 221 0 min 0,000 mm 0,0 UV-I 88 W/m 9,1 C 8,5 C 12,9 km/h (3 Bft) 100,00 %
19.10.2016 13:42 10,3 C 92 % 1017,6 hPa 0,0 l/m 10,1 km/h (2 Bft) SW 232 0 min 0,000 mm 0,0 UV-I 82 W/m 9,1 C 7,9 C 16,1 km/h (3 Bft) 97,73 %
19.10.2016 13:44 10,3 C 92 % 1017,6 hPa 0,0 l/m 10,5 km/h (2 Bft) S-SW 196 0 min 0,000 mm 0,0 UV-I 81 W/m 9,1 C 7,6 C 19,3 km/h (3 Bft) 98,00 %
19.10.2016 13:46 10,3 C 92 % 1017,6 hPa 0,0 l/m 8,5 km/h (2 Bft) S-SW 200 0 min 0,000 mm 0,0 UV-I 83 W/m 9,1 C 8,8 C 16,1 km/h (3 Bft) 97,87 %
19.10.2016 13:48 10,3 C 92 % 1017,6 hPa 0,0 l/m 10,6 km/h (2 Bft) S-SW 200 0 min 0,000 mm 0,0 UV-I 89 W/m 9,1 C 7,6 C 17,7 km/h (3 Bft) 100,00 %
19.10.2016 13:50 10,3 C 92 % 1017,6 hPa 0,0 l/m 10,9 km/h (2 Bft) S-SW 208 0 min 0,000 mm 0,0 UV-I 91 W/m 9,1 C 7,4 C 12,9 km/h (3 Bft) 97,37 %
19.10.2016 13:52 10,3 C 92 % 1017,6 hPa 0,0 l/m 12,5 km/h (3 Bft) S 182 0 min 0,000 mm 0,0 UV-I 93 W/m 9,1 C 6,6 C 17,7 km/h (3 Bft) 98,11 %
19.10.2016 13:54 10,3 C 92 % 1017,5 hPa 0,2 l/m 9,8 km/h (2 Bft) S 181 0 min 0,000 mm 0,0 UV-I 99 W/m 9,1 C 8,0 C 17,7 km/h (3 Bft) 100,00 %
19.10.2016 13:56 10,3 C 92 % 1017,5 hPa 0,0 l/m 9,6 km/h (2 Bft) S-SO 157 0 min 0,000 mm 0,1 UV-I 105 W/m 9,1 C 8,2 C 16,1 km/h (3 Bft) 100,00 %
19.10.2016 13:58 10,3 C 92 % 1017,5 hPa 0,0 l/m 8,8 km/h (2 Bft) S-SW 209 0 min 0,000 mm 0,5 UV-I 112 W/m 9,1 C 8,6 C 17,7 km/h (3 Bft) 100,00 %
19.10.2016 14:00 10,3 C 92 % 1017,5 hPa 0,0 l/m 8,9 km/h (2 Bft) S-SW 207 0 min 0,051 mm 0,3 UV-I 104 W/m 9,1 C 8,6 C 16,1 km/h (3 Bft) 100,00 %
19.10.2016 14:02 10,4 C 92 % 1017,5 hPa 0,0 l/m 9,4 km/h (2 Bft) SW 227 0 min 0,000 mm 0,0 UV-I 96 W/m 9,2 C 8,4 C 16,1 km/h (3 Bft) 97,92 %
19.10.2016 14:04 10,3 C 92 % 1017,5 hPa 0,0 l/m 9,6 km/h (2 Bft) S 175 0 min 0,000 mm 0,2 UV-I 101 W/m 9,1 C 8,2 C 12,9 km/h (3 Bft) 100,00 %
19.10.2016 14:06 10,3 C 91 % 1017,5 hPa 0,0 l/m 10,1 km/h (2 Bft) S-SW 199 0 min 0,000 mm 0,5 UV-I 111 W/m 8,9 C 7,9 C 14,5 km/h (3 Bft) 100,00 %
19.10.2016 14:08 10,3 C 91 % 1017,4 hPa 0,0 l/m 7,4 km/h (2 Bft) S-SW 203 0 min 0,000 mm 0,5 UV-I 109 W/m 8,9 C 9,6 C 12,9 km/h (3 Bft) 96,43 %
19.10.2016 14:10 10,4 C 92 % 1017,5 hPa 0,0 l/m 8,8 km/h (2 Bft) SW 229 0 min 0,000 mm 0,5 UV-I 130 W/m 9,2 C 8,8 C 14,5 km/h (3 Bft) 100,00 %
19.10.2016 14:12 10,4 C 92 % 1017,4 hPa 0,0 l/m 8,4 km/h (2 Bft) S 177 0 min 0,000 mm 0,6 UV-I 136 W/m 9,2 C 9,0 C 14,5 km/h (3 Bft) 100,00 %
19.10.2016 14:14 10,4 C 91 % 1017,3 hPa 0,0 l/m 9,1 km/h (2 Bft) S-SW 200 0 min 0,000 mm 0,6 UV-I 132 W/m 9,0 C 8,6 C 16,1 km/h (3 Bft) 97,92 %
19.10.2016 14:16 10,4 C 90 % 1017,3 hPa 0,0 l/m 8,1 km/h (2 Bft) S 173 0 min 0,000 mm 0,5 UV-I 130 W/m 8,8 C 9,2 C 24,1 km/h (4 Bft) 97,87 %
19.10.2016 14:18 10,5 C 90 % 1017,3 hPa 0,0 l/m 7,9 km/h (2 Bft) S-SO 157 0 min 0,000 mm 0,6 UV-I 132 W/m 8,9 C 9,4 C 14,5 km/h (3 Bft) 97,67 %
19.10.2016 14:20 10,5 C 90 % 1017,3 hPa 0,0 l/m 6,7 km/h (2 Bft) SW 218 0 min 0,000 mm 0,6 UV-I 135 W/m 8,9 C 10,3 C 11,3 km/h (2 Bft) 96,00 %
19.10.2016 14:22 10,6 C 90 % 1017,3 hPa 0,0 l/m 6,7 km/h (2 Bft) S-SW 200 0 min 0,000 mm 0,6 UV-I 138 W/m 9,0 C 10,4 C 11,3 km/h (2 Bft) 98,00 %
19.10.2016 14:24 10,6 C 90 % 1017,3 hPa 0,0 l/m 6,6 km/h (2 Bft) SW 221 0 min 0,000 mm 0,6 UV-I 143 W/m 9,0 C 10,5 C 14,5 km/h (3 Bft) 97,87 %
19.10.2016 14:26 10,6 C 91 % 1017,3 hPa 0,0 l/m 7,9 km/h (2 Bft) S-SW 212 0 min 0,000 mm 0,6 UV-I 146 W/m 9,2 C 9,5 C 12,9 km/h (3 Bft) 97,56 %
19.10.2016 14:28 10,6 C 91 % 1017,3 hPa 0,0 l/m 8,8 km/h (2 Bft) S-SW 193 0 min 0,000 mm 0,6 UV-I 147 W/m 9,2 C 9,0 C 16,1 km/h (3 Bft) 95,74 %
19.10.2016 14:30 10,6 C 90 % 1017,2 hPa 0,0 l/m 11,4 km/h (2 Bft) SW 220 0 min 0,000 mm 0,6 UV-I 141 W/m 9,0 C 7,5 C 16,1 km/h (3 Bft) 97,87 %
19.10.2016 14:32 10,6 C 90 % 1017,2 hPa 0,0 l/m 4,6 km/h (1 Bft) S-SW 205 0 min 0,000 mm 0,5 UV-I 132 W/m 9,0 C 10,6 C 14,5 km/h (3 Bft) 97,78 %
19.10.2016 14:34 10,7 C 90 % 1017,2 hPa 0,0 l/m 7,4 km/h (2 Bft) S-SW 195 0 min 0,000 mm 0,5 UV-I 124 W/m 9,1 C 10,0 C 14,5 km/h (3 Bft) 98,00 %
19.10.2016 14:36 10,6 C 90 % 1017,2 hPa 0,0 l/m 9,4 km/h (2 Bft) S-SW 194 0 min 0,000 mm 0,2 UV-I 108 W/m 9,0 C 8,6 C 14,5 km/h (3 Bft) 92,31 %
19.10.2016 14:38 10,7 C 90 % 1017,2 hPa 0,0 l/m 10,5 km/h (2 Bft) S 175 0 min 0,000 mm 0,0 UV-I 93 W/m 9,1 C 8,1 C 14,5 km/h (3 Bft) 100,00 %
19.10.2016 14:40 10,6 C 90 % 1017,1 hPa 0,0 l/m 8,2 km/h (2 Bft) SW 225 0 min 0,000 mm 0,0 UV-I 79 W/m 9,0 C 9,4 C 11,3 km/h (2 Bft) 96,43 %
19.10.2016 14:42 10,6 C 90 % 1017,1 hPa 0,0 l/m 10,6 km/h (2 Bft) SW 223 0 min 0,000 mm 0,0 UV-I 72 W/m 9,0 C 7,9 C 19,3 km/h (3 Bft) 98,00 %
19.10.2016 14:44 10,6 C 89 % 1017,1 hPa 0,0 l/m 7,9 km/h (2 Bft) S-SW 213 0 min 0,000 mm 0,0 UV-I 70 W/m 8,9 C 9,5 C 11,3 km/h (2 Bft) 95,65 %
19.10.2016 14:46 10,6 C 89 % 1017,1 hPa 0,0 l/m 8,6 km/h (2 Bft) S 182 0 min 0,000 mm 0,0 UV-I 66 W/m 8,9 C 9,1 C 14,5 km/h (3 Bft) 98,44 %
19.10.2016 14:48 10,6 C 89 % 1017,1 hPa 0,0 l/m 7,8 km/h (2 Bft) SW 226 0 min 0,000 mm 0,0 UV-I 59 W/m 8,9 C 9,6 C 14,5 km/h (3 Bft) 96,00 %
19.10.2016 14:50 10,5 C 89 % 1017,1 hPa 0,0 l/m 9,7 km/h (2 Bft) SW 217 0 min 0,000 mm 0,0 UV-I 54 W/m 8,8 C 8,3 C 12,9 km/h (3 Bft) 100,00 %
19.10.2016 14:52 10,5 C 89 % 1017,1 hPa 0,0 l/m 8,2 km/h (2 Bft) S-SW 205 0 min 0,000 mm 0,0 UV-I 47 W/m 8,8 C 9,2 C 12,9 km/h (3 Bft) 100,00 %
19.10.2016 14:54 10,4 C 89 % 1017,1 hPa 0,0 l/m 8,2 km/h (2 Bft) SW 219 0 min 0,000 mm 0,0 UV-I 40 W/m 8,7 C 9,1 C 14,5 km/h (3 Bft) 100,00 %
19.10.2016 14:56 10,4 C 90 % 1017,0 hPa 0,0 l/m 6,2 km/h (2 Bft) S 191 0 min 0,000 mm 0,0 UV-I 33 W/m 8,8 C 10,4 C 11,3 km/h (2 Bft) 98,00 %
19.10.2016 14:58 10,4 C 90 % 1017,0 hPa 0,0 l/m 5,9 km/h (2 Bft) SW 219 0 min 0,000 mm 0,0 UV-I 31 W/m 8,8 C 10,4 C 9,7 km/h (2 Bft) 97,87 %
19.10.2016 15:00 10,4 C 90 % 1017,1 hPa 0,0 l/m 6,3 km/h (2 Bft) S-SW 205 0 min 0,051 mm 0,0 UV-I 27 W/m 8,8 C 10,4 C 9,7 km/h (2 Bft) 100,00 %
19.10.2016 15:02 10,3 C 90 % 1017,1 hPa 0,2 l/m 6,9 km/h (2 Bft) SW 214 0 min 0,000 mm 0,0 UV-I 26 W/m 8,7 C 9,9 C 12,9 km/h (3 Bft) 100,00 %
19.10.2016 15:04 10,3 C 91 % 1017,1 hPa 0,0 l/m 6,1 km/h (2 Bft) SW 233 0 min 0,000 mm 0,0 UV-I 27 W/m 8,9 C 10,3 C 8,0 km/h (2 Bft) 97,37 %
19.10.2016 15:06 10,3 C 91 % 1017,1 hPa 0,0 l/m 5,8 km/h (2 Bft) S-SW 205 0 min 0,000 mm 0,0 UV-I 29 W/m 8,9 C 10,3 C 8,0 km/h (2 Bft) 100,00 %
19.10.2016 15:08 10,2 C 91 % 1017,0 hPa 0,2 l/m 6,0 km/h (2 Bft) SW 218 0 min 0,000 mm 0,0 UV-I 36 W/m 8,8 C 10,2 C 8,0 km/h (2 Bft) 97,22 %
19.10.2016 15:10 10,2 C 91 % 1017,0 hPa 0,0 l/m 5,1 km/h (1 Bft) SW 234 0 min 0,000 mm 0,0 UV-I 44 W/m 8,8 C 10,2 C 6,4 km/h (2 Bft) 98,28 %
19.10.2016 15:12 10,2 C 91 % 1017,1 hPa 0,0 l/m 4,8 km/h (1 Bft) W-SW 244 0 min 0,000 mm 0,0 UV-I 39 W/m 8,8 C 10,2 C 6,4 km/h (2 Bft) 98,00 %
19.10.2016 15:14 10,2 C 91 % 1017,1 hPa 0,0 l/m 4,7 km/h (1 Bft) W 261 0 min 0,000 mm 0,0 UV-I 34 W/m 8,8 C 10,2 C 8,0 km/h (2 Bft) 100,00 %
19.10.2016 15:16 10,1 C 91 % 1017,1 hPa 0,0 l/m 3,3 km/h (1 Bft) W-SW 258 0 min 0,000 mm 0,0 UV-I 31 W/m 8,7 C 10,1 C 6,4 km/h (2 Bft) 100,00 %
19.10.2016 15:18 10,0 C 92 % 1017,1 hPa 0,0 l/m 2,1 km/h (1 Bft) W 275 0 min 0,000 mm 0,0 UV-I 26 W/m 8,8 C 10,0 C 6,4 km/h (2 Bft) 100,00 %
19.10.2016 15:20 9,9 C 93 % 1017,1 hPa 0,0 l/m 1,5 km/h (1 Bft) SW 215 0 min 0,000 mm 0,0 UV-I 23 W/m 8,8 C 9,9 C 4,8 km/h (1 Bft) 100,00 %
19.10.2016 15:22 9,8 C 93 % 1017,1 hPa 0,0 l/m 1,0 km/h (0 Bft) SW 215 0 min 0,000 mm 0,0 UV-I 19 W/m 8,7 C 9,8 C 3,2 km/h (1 Bft) 100,00 %
19.10.2016 15:24 9,7 C 94 % 1017,1 hPa 0,0 l/m 1,1 km/h (1 Bft) SW 215 0 min 0,000 mm 0,0 UV-I 18 W/m 8,8 C 9,7 C 3,2 km/h (1 Bft) 100,00 %
19.10.2016 15:26 9,7 C 94 % 1017,1 hPa 0,2 l/m 2,4 km/h (1 Bft) W-SW 257 0 min 0,000 mm 0,0 UV-I 18 W/m 8,8 C 9,7 C 4,8 km/h (1 Bft) 100,00 %
19.10.2016 15:28 9,6 C 94 % 1017,1 hPa 0,0 l/m 2,0 km/h (1 Bft) W 267 0 min 0,000 mm 0,0 UV-I 18 W/m 8,7 C 9,6 C 3,2 km/h (1 Bft) 100,00 %
19.10.2016 15:30 9,6 C 94 % 1017,2 hPa 0,0 l/m 0,6 km/h (0 Bft) W 267 0 min 0,000 mm 0,0 UV-I 23 W/m 8,7 C 9,6 C 1,6 km/h (1 Bft) 100,00 %
19.10.2016 15:32 9,4 C 94 % 1017,1 hPa 0,0 l/m 2,2 km/h (1 Bft) NW 305 0 min 0,000 mm 0,0 UV-I 23 W/m 8,5 C 9,4 C 6,4 km/h (2 Bft) 100,00 %
19.10.2016 15:34 9,3 C 94 % 1017,2 hPa 0,0 l/m 2,5 km/h (1 Bft) W-SW 250 0 min 0,000 mm 0,0 UV-I 18 W/m 8,4 C 9,3 C 4,8 km/h (1 Bft) 100,00 %
19.10.2016 15:36 9,3 C 94 % 1017,3 hPa 0,2 l/m 4,9 km/h (1 Bft) W 280 0 min 0,000 mm 0,0 UV-I 14 W/m 8,4 C 9,3 C 9,7 km/h (2 Bft) 97,37 %
19.10.2016 15:38 9,2 C 94 % 1017,3 hPa 0,2 l/m 3,8 km/h (1 Bft) W 266 0 min 0,000 mm 0,0 UV-I 16 W/m 8,3 C 9,2 C 12,9 km/h (3 Bft) 97,73 %
19.10.2016 15:40 9,1 C 94 % 1017,2 hPa 0,0 l/m 4,9 km/h (1 Bft) W-SW 257 0 min 0,000 mm 0,0 UV-I 29 W/m 8,2 C 9,1 C 11,3 km/h (2 Bft) 100,00 %
19.10.2016 15:42 8,9 C 94 % 1017,2 hPa 0,0 l/m 2,0 km/h (1 Bft) W-NW 298 0 min 0,000 mm 0,0 UV-I 44 W/m 8,0 C 8,9 C 4,8 km/h (1 Bft) 100,00 %
19.10.2016 15:44 8,8 C 94 % 1017,3 hPa 0,2 l/m 2,6 km/h (1 Bft) W 261 0 min 0,000 mm 0,0 UV-I 53 W/m 7,9 C 8,8 C 6,4 km/h (2 Bft) 100,00 %
19.10.2016 15:46 8,8 C 95 % 1017,3 hPa 0,0 l/m 3,4 km/h (1 Bft) W-SW 250 0 min 0,000 mm 0,0 UV-I 54 W/m 8,0 C 8,8 C 4,8 km/h (1 Bft) 100,00 %
19.10.2016 15:48 8,8 C 95 % 1017,3 hPa 0,0 l/m 2,3 km/h (1 Bft) W-SW 257 0 min 0,000 mm 0,0 UV-I 54 W/m 8,0 C 8,8 C 4,8 km/h (1 Bft) 97,56 %
19.10.2016 15:50 8,7 C 95 % 1017,2 hPa 0,0 l/m 2,9 km/h (1 Bft) W 264 0 min 0,000 mm 0,0 UV-I 53 W/m 7,9 C 8,7 C 4,8 km/h (1 Bft) 100,00 %
19.10.2016 15:52 8,7 C 95 % 1017,3 hPa 0,0 l/m 4,1 km/h (1 Bft) W 268 0 min 0,000 mm 0,0 UV-I 46 W/m 7,9 C 8,7 C 8,0 km/h (2 Bft) 97,56 %
19.10.2016 15:54 8,7 C 95 % 1017,3 hPa 0,0 l/m 3,5 km/h (1 Bft) W 280 0 min 0,000 mm 0,0 UV-I 43 W/m 7,9 C 8,7 C 6,4 km/h (2 Bft) 100,00 %
19.10.2016 15:56 8,7 C 95 % 1017,3 hPa 0,0 l/m 1,8 km/h (1 Bft) W 280 0 min 0,000 mm 0,0 UV-I 56 W/m 7,9 C 8,7 C 3,2 km/h (1 Bft) 100,00 %
19.10.2016 15:58 8,7 C 95 % 1017,3 hPa 0,0 l/m 2,3 km/h (1 Bft) W 280 0 min 0,000 mm 0,0 UV-I 69 W/m 7,9 C 8,7 C 4,8 km/h (1 Bft) 97,92 %
19.10.2016 16:00 8,7 C 95 % 1017,2 hPa 0,0 l/m 3,3 km/h (1 Bft) W 280 0 min 0,000 mm 0,0 UV-I 76 W/m 7,9 C 8,7 C 4,8 km/h (1 Bft) 100,00 %
19.10.2016 16:02 8,7 C 95 % 1017,2 hPa 0,0 l/m 3,7 km/h (1 Bft) W 267 0 min 0,025 mm 0,0 UV-I 78 W/m 7,9 C 8,7 C 6,4 km/h (2 Bft) 100,00 %
19.10.2016 16:04 8,7 C 95 % 1017,2 hPa 0,0 l/m 2,6 km/h (1 Bft) W 267 0 min 0,000 mm 0,0 UV-I 82 W/m 7,9 C 8,7 C 4,8 km/h (1 Bft) 100,00 %
19.10.2016 16:06 8,8 C 95 % 1017,2 hPa 0,0 l/m 4,3 km/h (1 Bft) W 265 0 min 0,000 mm 0,0 UV-I 79 W/m 8,0 C 8,8 C 6,4 km/h (2 Bft) 100,00 %
19.10.2016 16:08 8,8 C 95 % 1017,2 hPa 0,0 l/m 4,2 km/h (1 Bft) W-SW 248 0 min 0,000 mm 0,0 UV-I 73 W/m 8,0 C 8,8 C 6,4 km/h (2 Bft) 100,00 %
19.10.2016 16:10 8,9 C 95 % 1017,2 hPa 0,0 l/m 4,1 km/h (1 Bft) W-SW 244 0 min 0,000 mm 0,0 UV-I 72 W/m 8,1 C 8,9 C 6,4 km/h (2 Bft) 100,00 %
19.10.2016 16:12 8,9 C 95 % 1017,2 hPa 0,0 l/m 4,6 km/h (1 Bft) W-SW 254 0 min 0,000 mm 0,0 UV-I 66 W/m 8,1 C 8,9 C 6,4 km/h (2 Bft) 100,00 %
19.10.2016 16:14 8,9 C 95 % 1017,2 hPa 0,0 l/m 3,7 km/h (1 Bft) W-SW 256 0 min 0,000 mm 0,0 UV-I 61 W/m 8,1 C 8,9 C 4,8 km/h (1 Bft) 100,00 %
19.10.2016 16:16 8,9 C 95 % 1017,2 hPa 0,0 l/m 3,3 km/h (1 Bft) W-SW 250 0 min 0,000 mm 0,0 UV-I 55 W/m 8,1 C 8,9 C 6,4 km/h (2 Bft) 100,00 %
19.10.2016 16:18 9,0 C 95 % 1017,1 hPa 0,0 l/m 3,1 km/h (1 Bft) W-SW 250 0 min 0,000 mm 0,0 UV-I 52 W/m 8,2 C 9,0 C 4,8 km/h (1 Bft) 98,00 %
19.10.2016 16:20 9,0 C 95 % 1017,1 hPa 0,0 l/m 3,1 km/h (1 Bft) W 267 0 min 0,000 mm 0,0 UV-I 48 W/m 8,2 C 9,0 C 4,8 km/h (1 Bft) 95,83 %
19.10.2016 16:22 9,0 C 95 % 1017,2 hPa 0,0 l/m 3,5 km/h (1 Bft) W 273 0 min 0,000 mm 0,0 UV-I 40 W/m 8,2 C 9,0 C 6,4 km/h (2 Bft) 97,01 %
19.10.2016 16:24 9,0 C 94 % 1017,2 hPa 0,0 l/m 3,9 km/h (1 Bft) W-SW 244 0 min 0,000 mm 0,0 UV-I 35 W/m 8,1 C 9,0 C 6,4 km/h (2 Bft) 96,00 %
19.10.2016 16:26 9,0 C 94 % 1017,1 hPa 0,0 l/m 3,3 km/h (1 Bft) W-SW 258 0 min 0,000 mm 0,0 UV-I 33 W/m 8,1 C 9,0 C 6,4 km/h (2 Bft) 97,87 %
19.10.2016 16:28 9,0 C 94 % 1017,1 hPa 0,0 l/m 3,1 km/h (1 Bft) W-SW 258 0 min 0,000 mm 0,0 UV-I 33 W/m 8,1 C 9,0 C 4,8 km/h (1 Bft) 97,87 %
19.10.2016 16:30 9,0 C 94 % 1017,1 hPa 0,0 l/m 2,0 km/h (1 Bft) W-SW 258 0 min 0,000 mm 0,0 UV-I 30 W/m 8,1 C 9,0 C 3,2 km/h (1 Bft) 95,74 %
19.10.2016 16:32 9,0 C 94 % 1017,0 hPa 0,0 l/m 0,7 km/h (0 Bft) W-SW 258 0 min 0,000 mm 0,0 UV-I 30 W/m 8,1 C 9,0 C 3,2 km/h (1 Bft) 97,44 %
19.10.2016 16:34 9,0 C 94 % 1017,0 hPa 0,0 l/m 2,1 km/h (1 Bft) W-SW 258 0 min 0,000 mm 0,0 UV-I 32 W/m 8,1 C 9,0 C 3,2 km/h (1 Bft) 98,00 %
19.10.2016 16:36 9,0 C 94 % 1017,0 hPa 0,0 l/m 1,2 km/h (1 Bft) W-SW 258 0 min 0,000 mm 0,0 UV-I 32 W/m 8,1 C 9,0 C 3,2 km/h (1 Bft) 97,87 %
19.10.2016 16:38 9,1 C 94 % 1017,0 hPa 0,0 l/m 1,4 km/h (1 Bft) W-SW 258 0 min 0,000 mm 0,0 UV-I 35 W/m 8,2 C 9,1 C 3,2 km/h (1 Bft) 94,00 %
19.10.2016 16:40 9,1 C 93 % 1017,0 hPa 0,0 l/m 1,1 km/h (1 Bft) W-SW 258 0 min 0,000 mm 0,0 UV-I 40 W/m 8,0 C 9,1 C 1,6 km/h (1 Bft) 97,87 %
19.10.2016 16:42 9,1 C 93 % 1016,9 hPa 0,0 l/m 1,7 km/h (1 Bft) W-SW 258 0 min 0,000 mm 0,0 UV-I 40 W/m 8,0 C 9,1 C 3,2 km/h (1 Bft) 97,37 %
19.10.2016 16:44 9,1 C 94 % 1017,0 hPa 0,0 l/m 1,9 km/h (1 Bft) W-SW 258 0 min 0,000 mm 0,0 UV-I 36 W/m 8,2 C 9,1 C 3,2 km/h (1 Bft) 97,87 %
19.10.2016 16:46 9,1 C 93 % 1016,9 hPa 0,0 l/m 1,7 km/h (1 Bft) W-SW 258 0 min 0,000 mm 0,0 UV-I 35 W/m 8,0 C 9,1 C 3,2 km/h (1 Bft) 97,87 %
19.10.2016 16:48 9,2 C 94 % 1016,9 hPa 0,0 l/m 3,6 km/h (1 Bft) W-SW 240 0 min 0,000 mm 0,0 UV-I 36 W/m 8,3 C 9,2 C 4,8 km/h (1 Bft) 98,21 %
19.10.2016 16:50 9,2 C 94 % 1016,9 hPa 0,0 l/m 2,5 km/h (1 Bft) W-SW 244 0 min 0,000 mm 0,0 UV-I 38 W/m 8,3 C 9,2 C 4,8 km/h (1 Bft) 95,74 %
19.10.2016 16:52 9,2 C 94 % 1016,9 hPa 0,0 l/m 2,3 km/h (1 Bft) W-SW 244 0 min 0,000 mm 0,0 UV-I 41 W/m 8,3 C 9,2 C 4,8 km/h (1 Bft) 100,00 %
19.10.2016 16:54 9,2 C 94 % 1016,9 hPa 0,0 l/m 2,3 km/h (1 Bft) W-SW 244 0 min 0,000 mm 0,0 UV-I 45 W/m 8,3 C 9,2 C 3,2 km/h (1 Bft) 100,00 %
19.10.2016 16:56 9,2 C 94 % 1016,9 hPa 0,0 l/m 2,0 km/h (1 Bft) W-SW 244 0 min 0,000 mm 0,0 UV-I 46 W/m 8,3 C 9,2 C 3,2 km/h (1 Bft) 95,74 %
19.10.2016 16:58 9,2 C 94 % 1016,8 hPa 0,0 l/m 0,9 km/h (0 Bft) W-SW 244 0 min 0,000 mm 0,0 UV-I 43 W/m 8,3 C 9,2 C 3,2 km/h (1 Bft) 97,87 %
19.10.2016 17:00 9,2 C 94 % 1016,9 hPa 0,0 l/m 0,6 km/h (0 Bft) W-SW 244 0 min 0,000 mm 0,0 UV-I 40 W/m 8,3 C 9,2 C 1,6 km/h (1 Bft) 100,00 %
19.10.2016 17:02 9,3 C 94 % 1016,9 hPa 0,0 l/m 1,2 km/h (1 Bft) W-SW 244 0 min 0,026 mm 0,0 UV-I 34 W/m 8,4 C 9,3 C 3,2 km/h (1 Bft) 98,00 %
19.10.2016 17:04 9,3 C 94 % 1017,0 hPa 0,0 l/m 1,5 km/h (1 Bft) W-SW 244 0 min 0,000 mm 0,0 UV-I 32 W/m 8,4 C 9,3 C 3,2 km/h (1 Bft) 100,00 %
19.10.2016 17:06 9,3 C 94 % 1017,0 hPa 0,0 l/m 1,1 km/h (1 Bft) W-SW 238 0 min 0,000 mm 0,0 UV-I 33 W/m 8,4 C 9,3 C 3,2 km/h (1 Bft) 100,00 %
19.10.2016 17:08 9,2 C 94 % 1017,0 hPa 0,0 l/m 0,5 km/h (0 Bft) W-SW 238 0 min 0,000 mm 0,0 UV-I 33 W/m 8,3 C 9,2 C 1,6 km/h (1 Bft) 100,00 %
19.10.2016 17:10 9,3 C 94 % 1016,9 hPa 0,0 l/m 0,6 km/h (0 Bft) W-SW 238 0 min 0,000 mm 0,0 UV-I 30 W/m 8,4 C 9,3 C 1,6 km/h (1 Bft) 100,00 %
19.10.2016 17:12 9,2 C 94 % 1017,0 hPa 0,0 l/m 0,6 km/h (0 Bft) W-SW 238 0 min 0,000 mm 0,0 UV-I 26 W/m 8,3 C 9,2 C 1,6 km/h (1 Bft) 100,00 %
19.10.2016 17:14 9,2 C 94 % 1017,0 hPa 0,0 l/m 0,4 km/h (0 Bft) W-SW 238 0 min 0,000 mm 0,0 UV-I 25 W/m 8,3 C 9,2 C 1,6 km/h (1 Bft) 100,00 %
19.10.2016 17:16 9,2 C 95 % 1017,0 hPa 0,0 l/m 0,5 km/h (0 Bft) W-SW 238 0 min 0,000 mm 0,0 UV-I 23 W/m 8,4 C 9,2 C 1,6 km/h (1 Bft) 100,00 %
19.10.2016 17:18 9,2 C 95 % 1017,0 hPa 0,0 l/m 0,0 km/h (0 Bft) W-SW 238 0 min 0,000 mm 0,0 UV-I 21 W/m 8,4 C 9,2 C 1,6 km/h (1 Bft) 100,00 %
19.10.2016 17:20 9,2 C 95 % 1017,0 hPa 0,0 l/m 0,1 km/h (0 Bft) W-SW 238 0 min 0,000 mm 0,0 UV-I 19 W/m 8,4 C 9,2 C 1,6 km/h (1 Bft) 100,00 %
19.10.2016 17:22 9,2 C 94 % 1017,0 hPa 0,0 l/m 0,2 km/h (0 Bft) W-SW 238 0 min 0,000 mm 0,0 UV-I 19 W/m 8,3 C 9,2 C 1,6 km/h (1 Bft) 100,00 %
19.10.2016 17:24 9,1 C 95 % 1017,0 hPa 0,0 l/m 0,1 km/h (0 Bft) W-SW 238 0 min 0,000 mm 0,0 UV-I 19 W/m 8,3 C 9,1 C 1,6 km/h (1 Bft) 98,00 %
19.10.2016 17:26 9,1 C 95 % 1017,0 hPa 0,0 l/m 0,2 km/h (0 Bft) W-SW 238 0 min 0,000 mm 0,0 UV-I 18 W/m 8,3 C 9,1 C 1,6 km/h (1 Bft) 98,00 %
19.10.2016 17:28 9,2 C 95 % 1017,0 hPa 0,0 l/m 0,8 km/h (0 Bft) W-SW 238 0 min 0,000 mm 0,0 UV-I 16 W/m 8,4 C 9,2 C 1,6 km/h (1 Bft) 100,00 %
19.10.2016 17:30 9,1 C 94 % 1017,0 hPa 0,0 l/m 0,7 km/h (0 Bft) W-SW 238 0 min 0,000 mm 0,0 UV-I 14 W/m 8,2 C 9,1 C 1,6 km/h (1 Bft) 100,00 %
19.10.2016 17:32 9,1 C 95 % 1017,1 hPa 0,0 l/m 0,3 km/h (0 Bft) W-SW 238 0 min 0,000 mm 0,0 UV-I 13 W/m 8,3 C 9,1 C 1,6 km/h (1 Bft) 100,00 %
19.10.2016 17:34 9,1 C 95 % 1017,1 hPa 0,0 l/m 0,3 km/h (0 Bft) W-SW 238 0 min 0,000 mm 0,0 UV-I 11 W/m 8,3 C 9,1 C 1,6 km/h (1 Bft) 97,87 %
19.10.2016 17:36 9,1 C 95 % 1017,1 hPa 0,0 l/m 0,0 km/h (0 Bft) W-SW 238 0 min 0,000 mm 0,0 UV-I 9 W/m 8,3 C 9,1 C 1,6 km/h (1 Bft) 98,00 %
19.10.2016 17:38 9,1 C 95 % 1017,1 hPa 0,0 l/m 0,1 km/h (0 Bft) W-SW 238 0 min 0,000 mm 0,0 UV-I 9 W/m 8,3 C 9,1 C 1,6 km/h (1 Bft) 100,00 %
19.10.2016 17:40 9,1 C 95 % 1017,1 hPa 0,0 l/m 0,4 km/h (0 Bft) W-SW 238 0 min 0,000 mm 0,0 UV-I 8 W/m 8,3 C 9,1 C 3,2 km/h (1 Bft) 97,37 %
19.10.2016 17:42 9,1 C 95 % 1017,1 hPa 0,0 l/m 0,4 km/h (0 Bft) W-SW 238 0 min 0,000 mm 0,0 UV-I 7 W/m 8,3 C 9,1 C 1,6 km/h (1 Bft) 100,00 %
19.10.2016 17:44 9,1 C 95 % 1017,0 hPa 0,0 l/m 1,9 km/h (1 Bft) S 181 0 min 0,000 mm 0,0 UV-I 7 W/m 8,3 C 9,1 C 3,2 km/h (1 Bft) 100,00 %
19.10.2016 17:46 9,1 C 95 % 1017,0 hPa 0,0 l/m 2,1 km/h (1 Bft) S 173 0 min 0,000 mm 0,0 UV-I 7 W/m 8,3 C 9,1 C 3,2 km/h (1 Bft) 94,74 %
19.10.2016 17:48 9,1 C 95 % 1017,0 hPa 0,0 l/m 2,3 km/h (1 Bft) S-SO 163 0 min 0,000 mm 0,0 UV-I 5 W/m 8,3 C 9,1 C 4,8 km/h (1 Bft) 100,00 %
19.10.2016 17:50 9,0 C 95 % 1017,0 hPa 0,0 l/m 0,7 km/h (0 Bft) S-SO 163 0 min 0,000 mm 0,0 UV-I 5 W/m 8,2 C 9,0 C 3,2 km/h (1 Bft) 97,62 %
19.10.2016 17:52 8,9 C 95 % 1017,0 hPa 0,0 l/m 0,3 km/h (0 Bft) S-SO 163 0 min 0,000 mm 0,0 UV-I 5 W/m 8,1 C 8,9 C 1,6 km/h (1 Bft) 98,11 %
19.10.2016 17:54 8,9 C 95 % 1017,0 hPa 0,0 l/m 0,5 km/h (0 Bft) S-SO 163 0 min 0,000 mm 0,0 UV-I 0 W/m 8,1 C 8,9 C 1,6 km/h (1 Bft) 100,00 %
19.10.2016 17:56 8,9 C 95 % 1017,0 hPa 0,0 l/m 0,0 km/h (0 Bft) S-SO 163 0 min 0,000 mm 0,0 UV-I 0 W/m 8,1 C 8,9 C 1,6 km/h (1 Bft) 100,00 %
19.10.2016 17:58 8,9 C 95 % 1017,0 hPa 0,0 l/m 0,0 km/h (0 Bft) S-SO 163 0 min 0,000 mm 0,0 UV-I 0 W/m 8,1 C 8,9 C 1,6 km/h (1 Bft) 100,00 %
19.10.2016 18:00 8,9 C 96 % 1016,9 hPa 0,0 l/m 0,0 km/h (0 Bft) S-SO 163 0 min 0,000 mm 0,0 UV-I 0 W/m 8,3 C 8,9 C 1,6 km/h (1 Bft) 97,87 %
19.10.2016 18:02 9,0 C 96 % 1017,0 hPa 0,0 l/m 0,4 km/h (0 Bft) S-SO 163 0 min 0,000 mm 0,0 UV-I 0 W/m 8,4 C 9,0 C 1,6 km/h (1 Bft) 98,08 %
19.10.2016 18:04 9,0 C 96 % 1017,0 hPa 0,0 l/m 0,5 km/h (0 Bft) S-SO 163 0 min 0,000 mm 0,0 UV-I 0 W/m 8,4 C 9,0 C 1,6 km/h (1 Bft) 100,00 %
19.10.2016 18:06 9,0 C 96 % 1017,0 hPa 0,0 l/m 0,3 km/h (0 Bft) S-SO 163 0 min 0,000 mm 0,0 UV-I 0 W/m 8,4 C 9,0 C 1,6 km/h (1 Bft) 100,00 %
19.10.2016 18:08 8,9 C 96 % 1017,1 hPa 0,0 l/m 0,6 km/h (0 Bft) S-SO 163 0 min 0,000 mm 0,0 UV-I 0 W/m 8,3 C 8,9 C 1,6 km/h (1 Bft) 100,00 %
19.10.2016 18:10 8,9 C 96 % 1017,1 hPa 0,0 l/m 0,3 km/h (0 Bft) S-SO 163 0 min 0,000 mm 0,0 UV-I 0 W/m 8,3 C 8,9 C 1,6 km/h (1 Bft) 100,00 %
19.10.2016 18:12 8,9 C 96 % 1017,1 hPa 0,0 l/m 1,9 km/h (1 Bft) S-SO 163 0 min 0,000 mm 0,0 UV-I 0 W/m 8,3 C 8,9 C 3,2 km/h (1 Bft) 100,00 %
19.10.2016 18:14 8,9 C 96 % 1017,0 hPa 0,0 l/m 2,7 km/h (1 Bft) S-SO 163 0 min 0,000 mm 0,0 UV-I 0 W/m 8,3 C 8,9 C 6,4 km/h (2 Bft) 100,00 %
19.10.2016 18:16 8,9 C 96 % 1017,0 hPa 0,0 l/m 2,4 km/h (1 Bft) S-SO 163 0 min 0,000 mm 0,0 UV-I 0 W/m 8,3 C 8,9 C 3,2 km/h (1 Bft) 97,37 %
19.10.2016 18:18 8,9 C 96 % 1017,0 hPa 0,0 l/m 2,9 km/h (1 Bft) SO 140 0 min 0,000 mm 0,0 UV-I 0 W/m 8,3 C 8,9 C 4,8 km/h (1 Bft) 98,11 %
19.10.2016 18:20 8,9 C 96 % 1017,0 hPa 0,0 l/m 3,2 km/h (1 Bft) SO 140 0 min 0,000 mm 0,0 UV-I 0 W/m 8,3 C 8,9 C 4,8 km/h (1 Bft) 97,87 %
19.10.2016 18:22 8,8 C 96 % 1017,0 hPa 0,0 l/m 4,0 km/h (1 Bft) SO 134 0 min 0,000 mm 0,0 UV-I 0 W/m 8,2 C 8,8 C 4,8 km/h (1 Bft) 97,87 %
19.10.2016 18:24 8,8 C 96 % 1017,0 hPa 0,0 l/m 4,3 km/h (1 Bft) O 97 0 min 0,000 mm 0,0 UV-I 0 W/m 8,2 C 8,8 C 6,4 km/h (2 Bft) 93,62 %
19.10.2016 18:26 8,8 C 96 % 1016,9 hPa 0,0 l/m 3,7 km/h (1 Bft) O-SO 104 0 min 0,000 mm 0,0 UV-I 0 W/m 8,2 C 8,8 C 4,8 km/h (1 Bft) 97,87 %
19.10.2016 18:28 8,8 C 96 % 1016,9 hPa 0,0 l/m 2,4 km/h (1 Bft) O-SO 104 0 min 0,000 mm 0,0 UV-I 0 W/m 8,2 C 8,8 C 3,2 km/h (1 Bft) 95,74 %
19.10.2016 18:30 8,8 C 96 % 1016,9 hPa 0,0 l/m 3,0 km/h (1 Bft) O 85 0 min 0,000 mm 0,0 UV-I 0 W/m 8,2 C 8,8 C 4,8 km/h (1 Bft) 94,34 %
19.10.2016 18:32 8,8 C 96 % 1016,9 hPa 0,0 l/m 1,6 km/h (1 Bft) O 85 0 min 0,000 mm 0,0 UV-I 0 W/m 8,2 C 8,8 C 4,8 km/h (1 Bft) 96,67 %
19.10.2016 18:34 8,8 C 96 % 1016,9 hPa 0,0 l/m 2,9 km/h (1 Bft) O 85 0 min 0,000 mm 0,0 UV-I 0 W/m 8,2 C 8,8 C 6,4 km/h (2 Bft) 96,88 %
19.10.2016 18:36 8,8 C 96 % 1016,9 hPa 0,0 l/m 2,4 km/h (1 Bft) O 85 0 min 0,000 mm 0,0 UV-I 0 W/m 8,2 C 8,8 C 4,8 km/h (1 Bft) 97,44 %
19.10.2016 18:38 8,8 C 96 % 1016,9 hPa 0,0 l/m 2,0 km/h (1 Bft) O 85 0 min 0,000 mm 0,0 UV-I 0 W/m 8,2 C 8,8 C 3,2 km/h (1 Bft) 98,00 %
19.10.2016 18:40 8,8 C 96 % 1016,9 hPa 0,0 l/m 1,6 km/h (1 Bft) O 85 0 min 0,000 mm 0,0 UV-I 0 W/m 8,2 C 8,8 C 3,2 km/h (1 Bft) 95,92 %
19.10.2016 18:42 8,8 C 96 % 1016,9 hPa 0,0 l/m 2,9 km/h (1 Bft) O 85 0 min 0,000 mm 0,0 UV-I 0 W/m 8,2 C 8,8 C 3,2 km/h (1 Bft) 98,00 %
19.10.2016 18:44 8,8 C 96 % 1016,9 hPa 0,0 l/m 2,7 km/h (1 Bft) O 92 0 min 0,000 mm 0,0 UV-I 0 W/m 8,2 C 8,8 C 4,8 km/h (1 Bft) 97,37 %
19.10.2016 18:46 8,8 C 96 % 1016,9 hPa 0,0 l/m 3,7 km/h (1 Bft) O 92 0 min 0,000 mm 0,0 UV-I 0 W/m 8,2 C 8,8 C 4,8 km/h (1 Bft) 93,62 %
19.10.2016 18:48 8,8 C 96 % 1016,9 hPa 0,0 l/m 4,4 km/h (1 Bft) SO 130 0 min 0,000 mm 0,0 UV-I 0 W/m 8,2 C 8,8 C 6,4 km/h (2 Bft) 97,87 %
19.10.2016 18:50 8,8 C 96 % 1016,9 hPa 0,0 l/m 5,0 km/h (1 Bft) O-SO 121 0 min 0,000 mm 0,0 UV-I 0 W/m 8,2 C 8,8 C 6,4 km/h (2 Bft) 95,12 %
19.10.2016 18:52 8,8 C 96 % 1016,8 hPa 0,0 l/m 4,4 km/h (1 Bft) O-SO 121 0 min 0,000 mm 0,0 UV-I 0 W/m 8,2 C 8,8 C 6,4 km/h (2 Bft) 100,00 %
19.10.2016 18:54 8,8 C 96 % 1016,8 hPa 0,0 l/m 4,6 km/h (1 Bft) O-SO 115 0 min 0,000 mm 0,0 UV-I 0 W/m 8,2 C 8,8 C 9,7 km/h (2 Bft) 98,00 %
19.10.2016 18:56 8,8 C 96 % 1016,9 hPa 0,0 l/m 6,1 km/h (2 Bft) SO 125 0 min 0,000 mm 0,0 UV-I 0 W/m 8,2 C 8,8 C 9,7 km/h (2 Bft) 100,00 %
19.10.2016 18:58 8,8 C 96 % 1016,9 hPa 0,0 l/m 6,7 km/h (2 Bft) O-SO 113 0 min 0,000 mm 0,0 UV-I 0 W/m 8,2 C 8,6 C 11,3 km/h (2 Bft) 97,87 %
19.10.2016 19:00 8,8 C 96 % 1016,8 hPa 0,0 l/m 6,2 km/h (2 Bft) O-SO 114 0 min 0,000 mm 0,0 UV-I 0 W/m 8,2 C 8,8 C 9,7 km/h (2 Bft) 100,00 %
19.10.2016 19:02 8,8 C 96 % 1016,9 hPa 0,0 l/m 5,8 km/h (2 Bft) O-SO 115 0 min 0,000 mm 0,0 UV-I 0 W/m 8,2 C 8,8 C 9,7 km/h (2 Bft) 100,00 %
19.10.2016 19:04 8,8 C 96 % 1016,8 hPa 0,0 l/m 5,0 km/h (1 Bft) O-SO 115 0 min 0,000 mm 0,0 UV-I 0 W/m 8,2 C 8,8 C 6,4 km/h (2 Bft) 100,00 %
19.10.2016 19:06 8,8 C 96 % 1016,8 hPa 0,0 l/m 4,1 km/h (1 Bft) O-SO 104 0 min 0,000 mm 0,0 UV-I 0 W/m 8,2 C 8,8 C 6,4 km/h (2 Bft) 95,74 %
19.10.2016 19:08 8,8 C 96 % 1016,8 hPa 0,0 l/m 5,9 km/h (2 Bft) O-SO 116 0 min 0,000 mm 0,0 UV-I 0 W/m 8,2 C 8,8 C 11,3 km/h (2 Bft) 97,87 %
19.10.2016 19:10 8,8 C 96 % 1016,8 hPa 0,0 l/m 5,4 km/h (1 Bft) O-SO 115 0 min 0,000 mm 0,0 UV-I 0 W/m 8,2 C 8,8 C 8,0 km/h (2 Bft) 100,00 %
19.10.2016 19:12 8,8 C 96 % 1016,8 hPa 0,0 l/m 4,8 km/h (1 Bft) SO 138 0 min 0,000 mm 0,0 UV-I 0 W/m 8,2 C 8,8 C 6,4 km/h (2 Bft) 100,00 %
19.10.2016 19:14 8,9 C 96 % 1016,8 hPa 0,0 l/m 5,4 km/h (1 Bft) O-SO 115 0 min 0,000 mm 0,0 UV-I 0 W/m 8,3 C 8,9 C 9,7 km/h (2 Bft) 100,00 %
19.10.2016 19:16 8,9 C 96 % 1016,8 hPa 0,0 l/m 5,8 km/h (2 Bft) SO 129 0 min 0,000 mm 0,0 UV-I 0 W/m 8,3 C 8,9 C 9,7 km/h (2 Bft) 100,00 %
19.10.2016 19:18 8,9 C 96 % 1016,8 hPa 0,0 l/m 4,3 km/h (1 Bft) SO 140 0 min 0,000 mm 0,0 UV-I 0 W/m 8,3 C 8,9 C 8,0 km/h (2 Bft) 98,00 %
19.10.2016 19:20 8,9 C 96 % 1016,7 hPa 0,0 l/m 4,6 km/h (1 Bft) O-SO 121 0 min 0,000 mm 0,0 UV-I 0 W/m 8,3 C 8,9 C 6,4 km/h (2 Bft) 97,87 %
19.10.2016 19:22 8,9 C 96 % 1016,7 hPa 0,0 l/m 4,2 km/h (1 Bft) O 100 0 min 0,000 mm 0,0 UV-I 0 W/m 8,3 C 8,9 C 6,4 km/h (2 Bft) 100,00 %
19.10.2016 19:24 8,9 C 96 % 1016,7 hPa 0,0 l/m 4,5 km/h (1 Bft) O-SO 110 0 min 0,000 mm 0,0 UV-I 0 W/m 8,3 C 8,9 C 6,4 km/h (2 Bft) 97,37 %
19.10.2016 19:26 8,9 C 96 % 1016,7 hPa 0,0 l/m 3,1 km/h (1 Bft) O-SO 110 0 min 0,000 mm 0,0 UV-I 0 W/m 8,3 C 8,9 C 4,8 km/h (1 Bft) 100,00 %
19.10.2016 19:28 8,9 C 97 % 1016,6 hPa 0,0 l/m 5,0 km/h (1 Bft) O 84 0 min 0,000 mm 0,0 UV-I 0 W/m 8,4 C 8,9 C 9,7 km/h (2 Bft) 100,00 %
19.10.2016 19:30 8,9 C 97 % 1016,6 hPa 0,0 l/m 4,6 km/h (1 Bft) O 88 0 min 0,000 mm 0,0 UV-I 0 W/m 8,4 C 8,9 C 8,0 km/h (2 Bft) 100,00 %
19.10.2016 19:32 8,9 C 97 % 1016,7 hPa 0,0 l/m 2,6 km/h (1 Bft) O 86 0 min 0,000 mm 0,0 UV-I 0 W/m 8,4 C 8,9 C 4,8 km/h (1 Bft) 100,00 %
19.10.2016 19:34 8,9 C 97 % 1016,7 hPa 0,0 l/m 1,6 km/h (1 Bft) O 86 0 min 0,000 mm 0,0 UV-I 0 W/m 8,4 C 8,9 C 3,2 km/h (1 Bft) 100,00 %
19.10.2016 19:36 8,9 C 97 % 1016,7 hPa 0,0 l/m 0,5 km/h (0 Bft) O 86 0 min 0,000 mm 0,0 UV-I 0 W/m 8,4 C 8,9 C 3,2 km/h (1 Bft) 100,00 %
19.10.2016 19:38 8,9 C 97 % 1016,8 hPa 0,0 l/m 0,0 km/h (0 Bft) O 86 0 min 0,000 mm 0,0 UV-I 0 W/m 8,4 C 8,9 C 0,0 km/h (0 Bft) 98,00 %
19.10.2016 19:40 8,9 C 97 % 1016,8 hPa 0,0 l/m 0,0 km/h (0 Bft) O 86 0 min 0,000 mm 0,0 UV-I 0 W/m 8,4 C 8,9 C 0,0 km/h (0 Bft) 100,00 %
19.10.2016 19:42 8,9 C 97 % 1016,9 hPa 0,0 l/m 0,0 km/h (0 Bft) O 86 0 min 0,000 mm 0,0 UV-I 0 W/m 8,4 C 8,9 C 0,0 km/h (0 Bft) 100,00 %
19.10.2016 19:44 8,9 C 97 % 1016,9 hPa 0,0 l/m 0,0 km/h (0 Bft) O 86 0 min 0,000 mm 0,0 UV-I 0 W/m 8,4 C 8,9 C 0,0 km/h (0 Bft) 100,00 %
19.10.2016 19:46 8,9 C 97 % 1016,9 hPa 0,0 l/m 0,0 km/h (0 Bft) O 86 0 min 0,000 mm 0,0 UV-I 0 W/m 8,4 C 8,9 C 0,0 km/h (0 Bft) 100,00 %
19.10.2016 19:48 8,9 C 97 % 1016,9 hPa 0,0 l/m 1,8 km/h (1 Bft) O 86 0 min 0,000 mm 0,0 UV-I 0 W/m 8,4 C 8,9 C 3,2 km/h (1 Bft) 100,00 %
19.10.2016 19:50 8,9 C 97 % 1016,9 hPa 0,0 l/m 2,8 km/h (1 Bft) O 86 0 min 0,000 mm 0,0 UV-I 0 W/m 8,4 C 8,9 C 4,8 km/h (1 Bft) 100,00 %
19.10.2016 19:52 8,9 C 97 % 1016,8 hPa 0,2 l/m 4,0 km/h (1 Bft) O 86 0 min 0,000 mm 0,0 UV-I 0 W/m 8,4 C 8,9 C 6,4 km/h (2 Bft) 100,00 %
19.10.2016 19:54 8,9 C 97 % 1016,7 hPa 0,0 l/m 5,2 km/h (1 Bft) O-SO 106 0 min 0,000 mm 0,0 UV-I 0 W/m 8,4 C 8,9 C 6,4 km/h (2 Bft) 100,00 %
19.10.2016 19:56 8,9 C 97 % 1016,6 hPa 0,0 l/m 4,2 km/h (1 Bft) O 101 0 min 0,000 mm 0,0 UV-I 0 W/m 8,4 C 8,9 C 6,4 km/h (2 Bft) 100,00 %
19.10.2016 19:58 8,9 C 97 % 1016,7 hPa 0,0 l/m 3,9 km/h (1 Bft) O 81 0 min 0,000 mm 0,0 UV-I 0 W/m 8,4 C 8,9 C 6,4 km/h (2 Bft) 98,00 %
19.10.2016 20:00 8,9 C 97 % 1016,8 hPa 0,0 l/m 1,4 km/h (1 Bft) O 81 0 min 0,000 mm 0,0 UV-I 0 W/m 8,4 C 8,9 C 3,2 km/h (1 Bft) 100,00 %
19.10.2016 20:02 8,9 C 97 % 1016,7 hPa 0,0 l/m 2,0 km/h (1 Bft) O 81 0 min 0,000 mm 0,0 UV-I 0 W/m 8,4 C 8,9 C 4,8 km/h (1 Bft) 100,00 %
19.10.2016 20:04 8,9 C 97 % 1016,7 hPa 0,0 l/m 4,0 km/h (1 Bft) O-NO 76 0 min 0,000 mm 0,0 UV-I 0 W/m 8,4 C 8,9 C 6,4 km/h (2 Bft) 100,00 %
19.10.2016 20:06 8,9 C 97 % 1016,7 hPa 0,0 l/m 3,1 km/h (1 Bft) O 86 0 min 0,000 mm 0,0 UV-I 0 W/m 8,4 C 8,9 C 4,8 km/h (1 Bft) 97,87 %
19.10.2016 20:08 8,9 C 97 % 1016,7 hPa 0,0 l/m 3,8 km/h (1 Bft) O 86 0 min 0,000 mm 0,0 UV-I 0 W/m 8,4 C 8,9 C 6,4 km/h (2 Bft) 100,00 %
19.10.2016 20:10 8,9 C 97 % 1016,7 hPa 0,0 l/m 3,1 km/h (1 Bft) O 93 0 min 0,000 mm 0,0 UV-I 0 W/m 8,4 C 8,9 C 6,4 km/h (2 Bft) 100,00 %
19.10.2016 20:12 8,9 C 97 % 1016,7 hPa 0,0 l/m 4,5 km/h (1 Bft) O-SO 113 0 min 0,000 mm 0,0 UV-I 0 W/m 8,4 C 8,9 C 6,4 km/h (2 Bft) 100,00 %
19.10.2016 20:14 8,9 C 97 % 1016,6 hPa 0,0 l/m 6,7 km/h (2 Bft) O-SO 103 0 min 0,000 mm 0,0 UV-I 0 W/m 8,4 C 8,7 C 11,3 km/h (2 Bft) 100,00 %
19.10.2016 20:16 8,9 C 97 % 1016,5 hPa 0,0 l/m 7,3 km/h (2 Bft) O-SO 111 0 min 0,000 mm 0,0 UV-I 0 W/m 8,4 C 8,2 C 11,3 km/h (2 Bft) 100,00 %
19.10.2016 20:18 8,9 C 97 % 1016,5 hPa 0,0 l/m 7,7 km/h (2 Bft) O-SO 111 0 min 0,000 mm 0,0 UV-I 0 W/m 8,4 C 7,9 C 11,3 km/h (2 Bft) 97,14 %
19.10.2016 20:20 8,9 C 97 % 1016,6 hPa 0,0 l/m 6,7 km/h (2 Bft) SO 126 0 min 0,000 mm 0,0 UV-I 0 W/m 8,4 C 8,7 C 9,7 km/h (2 Bft) 98,11 %
19.10.2016 20:22 8,9 C 97 % 1016,6 hPa 0,0 l/m 8,0 km/h (2 Bft) O-SO 113 0 min 0,000 mm 0,0 UV-I 0 W/m 8,4 C 7,7 C 11,3 km/h (2 Bft) 97,92 %
19.10.2016 20:24 8,9 C 97 % 1016,6 hPa 0,2 l/m 6,1 km/h (2 Bft) SO 130 0 min 0,000 mm 0,0 UV-I 0 W/m 8,4 C 8,9 C 9,7 km/h (2 Bft) 95,74 %
19.10.2016 20:26 8,9 C 97 % 1016,6 hPa 0,0 l/m 5,0 km/h (1 Bft) O-SO 116 0 min 0,000 mm 0,0 UV-I 0 W/m 8,4 C 8,9 C 9,7 km/h (2 Bft) 95,74 %
19.10.2016 20:28 8,9 C 97 % 1016,6 hPa 0,0 l/m 7,1 km/h (2 Bft) O-SO 122 0 min 0,000 mm 0,0 UV-I 0 W/m 8,4 C 8,4 C 9,7 km/h (2 Bft) 95,45 %
19.10.2016 20:30 8,9 C 97 % 1016,6 hPa 0,0 l/m 5,2 km/h (1 Bft) SO 135 0 min 0,000 mm 0,0 UV-I 0 W/m 8,4 C 8,9 C 8,0 km/h (2 Bft) 98,11 %
19.10.2016 20:34 8,9 C 97 % 1016,6 hPa 0,0 l/m 5,6 km/h (1 Bft) O-SO 119 0 min 0,000 mm 0,0 UV-I 0 W/m 8,4 C 8,9 C 6,4 km/h (2 Bft) 96,67 %
19.10.2016 20:36 8,9 C 97 % 1016,6 hPa 0,0 l/m 7,9 km/h (2 Bft) O-SO 107 0 min 0,000 mm 0,0 UV-I 0 W/m 8,4 C 7,8 C 11,3 km/h (2 Bft) 97,37 %
19.10.2016 20:38 8,9 C 97 % 1016,6 hPa 0,2 l/m 8,2 km/h (2 Bft) SO 124 0 min 0,000 mm 0,0 UV-I 0 W/m 8,4 C 7,6 C 11,3 km/h (2 Bft) 96,00 %
19.10.2016 20:40 8,9 C 97 % 1016,6 hPa 0,0 l/m 8,0 km/h (2 Bft) O-SO 113 0 min 0,000 mm 0,0 UV-I 0 W/m 8,4 C 7,7 C 12,9 km/h (3 Bft) 98,00 %
19.10.2016 20:42 8,8 C 97 % 1016,6 hPa 0,0 l/m 7,6 km/h (2 Bft) O-SO 104 0 min 0,000 mm 0,0 UV-I 0 W/m 8,4 C 7,9 C 11,3 km/h (2 Bft) 96,00 %
19.10.2016 20:44 8,8 C 97 % 1016,6 hPa 0,0 l/m 6,4 km/h (2 Bft) SO 146 0 min 0,000 mm 0,0 UV-I 0 W/m 8,4 C 8,8 C 9,7 km/h (2 Bft) 97,56 %
19.10.2016 20:46 8,9 C 97 % 1016,5 hPa 0,0 l/m 6,9 km/h (2 Bft) SO 125 0 min 0,000 mm 0,0 UV-I 0 W/m 8,4 C 8,5 C 11,3 km/h (2 Bft) 97,87 %
19.10.2016 20:48 8,8 C 97 % 1016,5 hPa 0,0 l/m 6,9 km/h (2 Bft) S-SO 150 0 min 0,000 mm 0,0 UV-I 0 W/m 8,4 C 8,4 C 11,3 km/h (2 Bft) 97,87 %
19.10.2016 20:50 8,8 C 97 % 1016,6 hPa 0,0 l/m 7,0 km/h (2 Bft) O-SO 117 0 min 0,000 mm 0,0 UV-I 0 W/m 8,4 C 8,3 C 11,3 km/h (2 Bft) 98,11 %
19.10.2016 20:52 8,8 C 97 % 1016,6 hPa 0,0 l/m 6,3 km/h (2 Bft) SO 133 0 min 0,000 mm 0,0 UV-I 0 W/m 8,4 C 8,8 C 9,7 km/h (2 Bft) 95,83 %
19.10.2016 20:54 8,8 C 97 % 1016,6 hPa 0,0 l/m 6,2 km/h (2 Bft) SO 132 0 min 0,000 mm 0,0 UV-I 0 W/m 8,4 C 8,8 C 9,7 km/h (2 Bft) 98,46 %
19.10.2016 20:56 8,8 C 97 % 1016,6 hPa 0,0 l/m 4,9 km/h (1 Bft) SO 126 0 min 0,000 mm 0,0 UV-I 0 W/m 8,4 C 8,8 C 8,0 km/h (2 Bft) 97,96 %
19.10.2016 20:58 8,8 C 97 % 1016,5 hPa 0,0 l/m 7,7 km/h (2 Bft) SO 128 0 min 0,000 mm 0,0 UV-I 0 W/m 8,4 C 7,8 C 11,3 km/h (2 Bft) 100,00 %
19.10.2016 21:00 8,8 C 97 % 1016,4 hPa 0,2 l/m 8,2 km/h (2 Bft) SO 141 0 min 0,000 mm 0,0 UV-I 0 W/m 8,4 C 7,5 C 11,3 km/h (2 Bft) 94,34 %
19.10.2016 21:02 8,8 C 97 % 1016,4 hPa 0,0 l/m 8,2 km/h (2 Bft) O-SO 117 0 min 0,000 mm 0,0 UV-I 0 W/m 8,4 C 7,5 C 12,9 km/h (3 Bft) 100,00 %
19.10.2016 21:04 8,8 C 97 % 1016,4 hPa 0,0 l/m 7,5 km/h (2 Bft) O-SO 102 0 min 0,000 mm 0,0 UV-I 0 W/m 8,4 C 8,0 C 11,3 km/h (2 Bft) 100,00 %
19.10.2016 21:06 8,8 C 97 % 1016,5 hPa 0,0 l/m 6,6 km/h (2 Bft) O-SO 107 0 min 0,000 mm 0,0 UV-I 0 W/m 8,4 C 8,7 C 11,3 km/h (2 Bft) 100,00 %
19.10.2016 21:08 8,8 C 97 % 1016,5 hPa 0,0 l/m 5,4 km/h (1 Bft) O-SO 105 0 min 0,000 mm 0,0 UV-I 0 W/m 8,4 C 8,8 C 9,7 km/h (2 Bft) 100,00 %
19.10.2016 21:10 8,8 C 97 % 1016,5 hPa 0,0 l/m 6,6 km/h (2 Bft) O-SO 102 0 min 0,000 mm 0,0 UV-I 0 W/m 8,4 C 8,7 C 11,3 km/h (2 Bft) 100,00 %
19.10.2016 21:12 8,8 C 97 % 1016,5 hPa 0,0 l/m 5,6 km/h (1 Bft) O-SO 119 0 min 0,000 mm 0,0 UV-I 0 W/m 8,4 C 8,8 C 9,7 km/h (2 Bft) 98,00 %
19.10.2016 21:14 8,8 C 97 % 1016,4 hPa 0,0 l/m 7,2 km/h (2 Bft) O-SO 123 0 min 0,000 mm 0,0 UV-I 0 W/m 8,4 C 8,2 C 11,3 km/h (2 Bft) 100,00 %
19.10.2016 21:16 8,8 C 97 % 1016,4 hPa 0,0 l/m 7,3 km/h (2 Bft) O 101 0 min 0,000 mm 0,0 UV-I 0 W/m 8,4 C 8,1 C 11,3 km/h (2 Bft) 100,00 %
19.10.2016 21:18 8,8 C 97 % 1016,4 hPa 0,0 l/m 5,8 km/h (2 Bft) O 92 0 min 0,000 mm 0,0 UV-I 0 W/m 8,4 C 8,8 C 9,7 km/h (2 Bft) 100,00 %
19.10.2016 21:20 8,8 C 97 % 1016,5 hPa 0,0 l/m 3,0 km/h (1 Bft) O 92 0 min 0,000 mm 0,0 UV-I 0 W/m 8,4 C 8,8 C 4,8 km/h (1 Bft) 100,00 %
19.10.2016 21:22 8,8 C 97 % 1016,6 hPa 0,0 l/m 3,3 km/h (1 Bft) O 82 0 min 0,000 mm 0,0 UV-I 0 W/m 8,4 C 8,8 C 6,4 km/h (2 Bft) 95,74 %
19.10.2016 21:24 8,7 C 97 % 1016,6 hPa 0,2 l/m 3,7 km/h (1 Bft) O 96 0 min 0,000 mm 0,0 UV-I 0 W/m 8,3 C 8,7 C 4,8 km/h (1 Bft) 100,00 %
19.10.2016 21:26 8,7 C 97 % 1016,6 hPa 0,0 l/m 2,9 km/h (1 Bft) O 96 0 min 0,000 mm 0,0 UV-I 0 W/m 8,3 C 8,7 C 4,8 km/h (1 Bft) 100,00 %
19.10.2016 21:28 8,7 C 97 % 1016,6 hPa 0,0 l/m 5,0 km/h (1 Bft) O-SO 112 0 min 0,000 mm 0,0 UV-I 0 W/m 8,3 C 8,7 C 6,4 km/h (2 Bft) 97,56 %
19.10.2016 21:30 8,7 C 97 % 1016,6 hPa 0,0 l/m 6,5 km/h (2 Bft) O-SO 109 0 min 0,000 mm 0,0 UV-I 0 W/m 8,3 C 8,6 C 9,7 km/h (2 Bft) 100,00 %
19.10.2016 21:32 8,7 C 97 % 1016,5 hPa 0,0 l/m 5,0 km/h (1 Bft) O-SO 106 0 min 0,000 mm 0,0 UV-I 0 W/m 8,3 C 8,7 C 6,4 km/h (2 Bft) 97,44 %
19.10.2016 21:34 8,8 C 97 % 1016,5 hPa 0,0 l/m 3,3 km/h (1 Bft) O 100 0 min 0,000 mm 0,0 UV-I 0 W/m 8,4 C 8,8 C 4,8 km/h (1 Bft) 98,08 %
19.10.2016 21:36 8,7 C 97 % 1016,5 hPa 0,0 l/m 2,3 km/h (1 Bft) O 100 0 min 0,000 mm 0,0 UV-I 0 W/m 8,3 C 8,7 C 4,8 km/h (1 Bft) 97,87 %
19.10.2016 21:38 8,7 C 97 % 1016,6 hPa 0,0 l/m 3,4 km/h (1 Bft) O-SO 113 0 min 0,000 mm 0,0 UV-I 0 W/m 8,3 C 8,7 C 4,8 km/h (1 Bft) 100,00 %
19.10.2016 21:40 8,7 C 97 % 1016,7 hPa 0,0 l/m 3,2 km/h (1 Bft) O-SO 111 0 min 0,000 mm 0,0 UV-I 0 W/m 8,3 C 8,7 C 4,8 km/h (1 Bft) 100,00 %
19.10.2016 21:42 8,7 C 97 % 1016,8 hPa 0,0 l/m 1,1 km/h (1 Bft) O-SO 119 0 min 0,000 mm 0,0 UV-I 0 W/m 8,3 C 8,7 C 3,2 km/h (1 Bft) 100,00 %
19.10.2016 21:44 8,7 C 97 % 1016,9 hPa 0,0 l/m 0,7 km/h (0 Bft) O-SO 119 0 min 0,000 mm 0,0 UV-I 0 W/m 8,3 C 8,7 C 1,6 km/h (1 Bft) 100,00 %
19.10.2016 21:46 8,7 C 97 % 1016,9 hPa 0,0 l/m 0,1 km/h (0 Bft) O-SO 119 0 min 0,000 mm 0,0 UV-I 0 W/m 8,3 C 8,7 C 1,6 km/h (1 Bft) 100,00 %
19.10.2016 21:48 8,7 C 97 % 1016,9 hPa 0,0 l/m 0,0 km/h (0 Bft) O-SO 119 0 min 0,000 mm 0,0 UV-I 0 W/m 8,3 C 8,7 C 0,0 km/h (0 Bft) 100,00 %
19.10.2016 21:50 8,7 C 97 % 1016,9 hPa 0,2 l/m 0,0 km/h (0 Bft) O-SO 119 0 min 0,000 mm 0,0 UV-I 0 W/m 8,3 C 8,7 C 0,0 km/h (0 Bft) 97,87 %
19.10.2016 21:52 8,7 C 97 % 1016,9 hPa 0,0 l/m 0,0 km/h (0 Bft) O-SO 119 0 min 0,000 mm 0,0 UV-I 0 W/m 8,3 C 8,7 C 0,0 km/h (0 Bft) 100,00 %
19.10.2016 21:54 8,7 C 97 % 1016,9 hPa 0,2 l/m 0,0 km/h (0 Bft) O-SO 119 0 min 0,000 mm 0,0 UV-I 0 W/m 8,3 C 8,7 C 0,0 km/h (0 Bft) 100,00 %
19.10.2016 21:56 8,7 C 97 % 1016,8 hPa 0,0 l/m 0,0 km/h (0 Bft) O-SO 119 0 min 0,000 mm 0,0 UV-I 0 W/m 8,3 C 8,7 C 0,0 km/h (0 Bft) 100,00 %
19.10.2016 21:58 8,7 C 97 % 1016,8 hPa 0,0 l/m 0,0 km/h (0 Bft) O-SO 119 0 min 0,000 mm 0,0 UV-I 0 W/m 8,3 C 8,7 C 0,0 km/h (0 Bft) 100,00 %
19.10.2016 22:00 8,7 C 97 % 1016,8 hPa 0,0 l/m 0,0 km/h (0 Bft) O-SO 119 0 min 0,000 mm 0,0 UV-I 0 W/m 8,3 C 8,7 C 0,0 km/h (0 Bft) 100,00 %
19.10.2016 22:02 8,7 C 97 % 1016,8 hPa 0,0 l/m 0,8 km/h (0 Bft) O-SO 119 0 min 0,000 mm 0,0 UV-I 0 W/m 8,3 C 8,7 C 3,2 km/h (1 Bft) 100,00 %
19.10.2016 22:04 8,7 C 97 % 1016,8 hPa 0,0 l/m 0,9 km/h (0 Bft) O-SO 119 0 min 0,000 mm 0,0 UV-I 0 W/m 8,3 C 8,7 C 1,6 km/h (1 Bft) 100,00 %
19.10.2016 22:06 8,7 C 97 % 1016,8 hPa 0,0 l/m 1,2 km/h (1 Bft) O-SO 119 0 min 0,000 mm 0,0 UV-I 0 W/m 8,3 C 8,7 C 1,6 km/h (1 Bft) 98,00 %
19.10.2016 22:08 8,7 C 97 % 1016,8 hPa 0,0 l/m 1,7 km/h (1 Bft) O-SO 119 0 min 0,000 mm 0,0 UV-I 0 W/m 8,3 C 8,7 C 3,2 km/h (1 Bft) 100,00 %
19.10.2016 22:10 8,7 C 97 % 1016,8 hPa 0,2 l/m 0,0 km/h (0 Bft) O-SO 119 0 min 0,000 mm 0,0 UV-I 0 W/m 8,3 C 8,7 C 0,0 km/h (0 Bft) 100,00 %
19.10.2016 22:12 8,7 C 97 % 1016,8 hPa 0,0 l/m 0,0 km/h (0 Bft) O-SO 119 0 min 0,000 mm 0,0 UV-I 0 W/m 8,3 C 8,7 C 0,0 km/h (0 Bft) 98,00 %
19.10.2016 22:14 8,7 C 97 % 1016,8 hPa 0,0 l/m 0,0 km/h (0 Bft) O-SO 119 0 min 0,000 mm 0,0 UV-I 0 W/m 8,3 C 8,7 C 0,0 km/h (0 Bft) 100,00 %
19.10.2016 22:16 8,7 C 97 % 1016,8 hPa 0,0 l/m 0,0 km/h (0 Bft) O-SO 119 0 min 0,000 mm 0,0 UV-I 0 W/m 8,3 C 8,7 C 0,0 km/h (0 Bft) 100,00 %
19.10.2016 22:18 8,7 C 97 % 1016,8 hPa 0,0 l/m 0,0 km/h (0 Bft) O-SO 119 0 min 0,000 mm 0,0 UV-I 0 W/m 8,3 C 8,7 C 0,0 km/h (0 Bft) 100,00 %
19.10.2016 22:20 8,7 C 97 % 1016,8 hPa 0,0 l/m 0,4 km/h (0 Bft) O-SO 119 0 min 0,000 mm 0,0 UV-I 0 W/m 8,3 C 8,7 C 1,6 km/h (1 Bft) 98,00 %
19.10.2016 22:22 8,7 C 97 % 1016,7 hPa 0,0 l/m 0,5 km/h (0 Bft) O-SO 119 0 min 0,000 mm 0,0 UV-I 0 W/m 8,3 C 8,7 C 1,6 km/h (1 Bft) 97,87 %
19.10.2016 22:24 8,7 C 97 % 1016,7 hPa 0,0 l/m 0,3 km/h (0 Bft) O-SO 119 0 min 0,000 mm 0,0 UV-I 0 W/m 8,3 C 8,7 C 1,6 km/h (1 Bft) 95,74 %
19.10.2016 22:26 8,7 C 97 % 1016,7 hPa 0,0 l/m 0,4 km/h (0 Bft) O-SO 119 0 min 0,000 mm 0,0 UV-I 0 W/m 8,3 C 8,7 C 1,6 km/h (1 Bft) 95,45 %
19.10.2016 22:28 8,7 C 97 % 1016,7 hPa 0,2 l/m 1,4 km/h (1 Bft) O-SO 119 0 min 0,000 mm 0,0 UV-I 0 W/m 8,3 C 8,7 C 3,2 km/h (1 Bft) 97,73 %
19.10.2016 22:30 8,7 C 97 % 1016,7 hPa 0,0 l/m 1,6 km/h (1 Bft) O-SO 119 0 min 0,000 mm 0,0 UV-I 0 W/m 8,3 C 8,7 C 3,2 km/h (1 Bft) 95,74 %
19.10.2016 22:32 8,7 C 97 % 1016,8 hPa 0,0 l/m 1,8 km/h (1 Bft) O-SO 119 0 min 0,000 mm 0,0 UV-I 0 W/m 8,3 C 8,7 C 3,2 km/h (1 Bft) 97,73 %
19.10.2016 22:34 8,7 C 97 % 1016,8 hPa 0,0 l/m 1,4 km/h (1 Bft) O-SO 119 0 min 0,000 mm 0,0 UV-I 0 W/m 8,3 C 8,7 C 3,2 km/h (1 Bft) 98,21 %
19.10.2016 22:36 8,7 C 97 % 1016,8 hPa 0,0 l/m 2,1 km/h (1 Bft) O-SO 119 0 min 0,000 mm 0,0 UV-I 0 W/m 8,3 C 8,7 C 3,2 km/h (1 Bft) 95,74 %
19.10.2016 22:38 8,7 C 97 % 1016,7 hPa 0,0 l/m 2,1 km/h (1 Bft) O-SO 119 0 min 0,000 mm 0,0 UV-I 0 W/m 8,3 C 8,7 C 3,2 km/h (1 Bft) 98,00 %
19.10.2016 22:40 8,7 C 97 % 1016,7 hPa 0,0 l/m 2,6 km/h (1 Bft) O-SO 119 0 min 0,000 mm 0,0 UV-I 0 W/m 8,3 C 8,7 C 4,8 km/h (1 Bft) 97,37 %
19.10.2016 22:42 8,7 C 97 % 1016,7 hPa 0,0 l/m 3,1 km/h (1 Bft) O-SO 119 0 min 0,000 mm 0,0 UV-I 0 W/m 8,3 C 8,7 C 4,8 km/h (1 Bft) 97,87 %
19.10.2016 22:44 8,7 C 97 % 1016,7 hPa 0,2 l/m 3,6 km/h (1 Bft) O-SO 117 0 min 0,000 mm 0,0 UV-I 0 W/m 8,3 C 8,7 C 4,8 km/h (1 Bft) 96,00 %
19.10.2016 22:46 8,7 C 97 % 1016,7 hPa 0,0 l/m 3,2 km/h (1 Bft) O-SO 117 0 min 0,000 mm 0,0 UV-I 0 W/m 8,3 C 8,7 C 4,8 km/h (1 Bft) 98,00 %
19.10.2016 22:48 8,7 C 97 % 1016,7 hPa 0,0 l/m 4,2 km/h (1 Bft) O-SO 111 0 min 0,000 mm 0,0 UV-I 0 W/m 8,3 C 8,7 C 6,4 km/h (2 Bft) 94,74 %
19.10.2016 22:50 8,7 C 97 % 1016,7 hPa 0,2 l/m 3,3 km/h (1 Bft) O-SO 111 0 min 0,000 mm 0,0 UV-I 0 W/m 8,3 C 8,7 C 4,8 km/h (1 Bft) 95,92 %
19.10.2016 22:52 8,7 C 98 % 1016,7 hPa 0,0 l/m 3,9 km/h (1 Bft) SO 125 0 min 0,000 mm 0,0 UV-I 0 W/m 8,4 C 8,7 C 6,4 km/h (2 Bft) 97,22 %
19.10.2016 22:54 8,6 C 98 % 1016,8 hPa 0,0 l/m 2,6 km/h (1 Bft) SO 142 0 min 0,000 mm 0,0 UV-I 0 W/m 8,3 C 8,6 C 4,8 km/h (1 Bft) 100,00 %
19.10.2016 22:56 8,6 C 98 % 1016,9 hPa 0,0 l/m 2,7 km/h (1 Bft) SO 141 0 min 0,000 mm 0,0 UV-I 0 W/m 8,3 C 8,6 C 4,8 km/h (1 Bft) 100,00 %
19.10.2016 22:58 8,6 C 98 % 1016,9 hPa 0,2 l/m 1,3 km/h (1 Bft) SO 146 0 min 0,000 mm 0,0 UV-I 0 W/m 8,3 C 8,6 C 3,2 km/h (1 Bft) 91,49 %
19.10.2016 23:00 8,6 C 98 % 1016,9 hPa 0,0 l/m 2,7 km/h (1 Bft) S-SO 152 0 min 0,000 mm 0,0 UV-I 0 W/m 8,3 C 8,6 C 4,8 km/h (1 Bft) 100,00 %
19.10.2016 23:02 8,6 C 98 % 1016,9 hPa 0,0 l/m 2,3 km/h (1 Bft) S-SO 152 0 min 0,000 mm 0,0 UV-I 0 W/m 8,3 C 8,6 C 4,8 km/h (1 Bft) 98,31 %
19.10.2016 23:04 8,6 C 98 % 1016,9 hPa 0,0 l/m 1,5 km/h (1 Bft) S-SO 152 0 min 0,000 mm 0,0 UV-I 0 W/m 8,3 C 8,6 C 3,2 km/h (1 Bft) 97,37 %
19.10.2016 23:06 8,6 C 98 % 1016,9 hPa 0,0 l/m 2,2 km/h (1 Bft) S-SO 152 0 min 0,000 mm 0,0 UV-I 0 W/m 8,3 C 8,6 C 4,8 km/h (1 Bft) 95,74 %
19.10.2016 23:08 8,6 C 98 % 1016,8 hPa 0,2 l/m 2,7 km/h (1 Bft) S-SO 147 0 min 0,000 mm 0,0 UV-I 0 W/m 8,3 C 8,6 C 4,8 km/h (1 Bft) 100,00 %
19.10.2016 23:10 8,5 C 98 % 1016,8 hPa 0,0 l/m 2,4 km/h (1 Bft) S-SO 147 0 min 0,000 mm 0,0 UV-I 0 W/m 8,2 C 8,5 C 4,8 km/h (1 Bft) 100,00 %
19.10.2016 23:12 8,5 C 98 % 1016,7 hPa 0,0 l/m 2,7 km/h (1 Bft) SO 144 0 min 0,000 mm 0,0 UV-I 0 W/m 8,2 C 8,5 C 6,4 km/h (2 Bft) 96,15 %
19.10.2016 23:14 8,5 C 97 % 1016,8 hPa 0,0 l/m 3,0 km/h (1 Bft) SO 132 0 min 0,000 mm 0,0 UV-I 0 W/m 8,1 C 8,5 C 4,8 km/h (1 Bft) 100,00 %
19.10.2016 23:16 8,5 C 97 % 1016,8 hPa 0,0 l/m 0,8 km/h (0 Bft) SO 132 0 min 0,000 mm 0,0 UV-I 0 W/m 8,1 C 8,5 C 3,2 km/h (1 Bft) 100,00 %
19.10.2016 23:18 8,5 C 97 % 1016,8 hPa 0,0 l/m 1,3 km/h (1 Bft) SO 132 0 min 0,000 mm 0,0 UV-I 0 W/m 8,1 C 8,5 C 3,2 km/h (1 Bft) 100,00 %
19.10.2016 23:20 8,5 C 97 % 1016,8 hPa 0,2 l/m 1,6 km/h (1 Bft) SO 135 0 min 0,000 mm 0,0 UV-I 0 W/m 8,1 C 8,5 C 3,2 km/h (1 Bft) 100,00 %
19.10.2016 23:22 8,4 C 97 % 1016,8 hPa 0,0 l/m 1,5 km/h (1 Bft) SO 135 0 min 0,000 mm 0,0 UV-I 0 W/m 8,0 C 8,4 C 3,2 km/h (1 Bft) 100,00 %
19.10.2016 23:24 8,4 C 97 % 1016,8 hPa 0,0 l/m 1,3 km/h (1 Bft) SO 135 0 min 0,000 mm 0,0 UV-I 0 W/m 8,0 C 8,4 C 3,2 km/h (1 Bft) 100,00 %
19.10.2016 23:26 8,4 C 97 % 1016,7 hPa 0,0 l/m 1,2 km/h (1 Bft) SO 134 0 min 0,000 mm 0,0 UV-I 0 W/m 8,0 C 8,4 C 3,2 km/h (1 Bft) 100,00 %
19.10.2016 23:28 8,4 C 97 % 1016,7 hPa 0,0 l/m 1,8 km/h (1 Bft) SO 134 0 min 0,000 mm 0,0 UV-I 0 W/m 8,0 C 8,4 C 3,2 km/h (1 Bft) 96,00 %
19.10.2016 23:30 8,4 C 97 % 1016,7 hPa 0,0 l/m 1,1 km/h (1 Bft) SO 135 0 min 0,000 mm 0,0 UV-I 0 W/m 8,0 C 8,4 C 1,6 km/h (1 Bft) 100,00 %
19.10.2016 23:32 8,4 C 97 % 1016,8 hPa 0,0 l/m 2,1 km/h (1 Bft) SO 134 0 min 0,000 mm 0,0 UV-I 0 W/m 8,0 C 8,4 C 3,2 km/h (1 Bft) 100,00 %
19.10.2016 23:34 8,4 C 97 % 1016,7 hPa 0,0 l/m 1,9 km/h (1 Bft) SO 135 0 min 0,000 mm 0,0 UV-I 0 W/m 8,0 C 8,4 C 3,2 km/h (1 Bft) 100,00 %
19.10.2016 23:36 8,4 C 97 % 1016,7 hPa 0,0 l/m 1,5 km/h (1 Bft) SO 135 0 min 0,000 mm 0,0 UV-I 0 W/m 8,0 C 8,4 C 3,2 km/h (1 Bft) 100,00 %
19.10.2016 23:38 8,4 C 97 % 1016,7 hPa 0,0 l/m 1,8 km/h (1 Bft) SO 134 0 min 0,000 mm 0,0 UV-I 0 W/m 8,0 C 8,4 C 3,2 km/h (1 Bft) 100,00 %
19.10.2016 23:40 8,3 C 97 % 1016,7 hPa 0,0 l/m 1,9 km/h (1 Bft) SO 134 0 min 0,000 mm 0,0 UV-I 0 W/m 7,9 C 8,3 C 3,2 km/h (1 Bft) 97,87 %
19.10.2016 23:42 8,3 C 97 % 1016,7 hPa 0,2 l/m 0,4 km/h (0 Bft) SO 134 0 min 0,000 mm 0,0 UV-I 0 W/m 7,9 C 8,3 C 1,6 km/h (1 Bft) 100,00 %
19.10.2016 23:44 8,3 C 97 % 1016,6 hPa 0,0 l/m 0,4 km/h (0 Bft) SO 134 0 min 0,000 mm 0,0 UV-I 0 W/m 7,9 C 8,3 C 1,6 km/h (1 Bft) 100,00 %
19.10.2016 23:46 8,3 C 97 % 1016,6 hPa 0,0 l/m 0,4 km/h (0 Bft) SO 134 0 min 0,000 mm 0,0 UV-I 0 W/m 7,9 C 8,3 C 1,6 km/h (1 Bft) 100,00 %
19.10.2016 23:48 8,3 C 97 % 1016,6 hPa 0,2 l/m 0,8 km/h (0 Bft) SO 134 0 min 0,000 mm 0,0 UV-I 0 W/m 7,9 C 8,3 C 1,6 km/h (1 Bft) 100,00 %
19.10.2016 23:50 8,3 C 97 % 1016,6 hPa 0,0 l/m 1,8 km/h (1 Bft) SO 134 0 min 0,000 mm 0,0 UV-I 0 W/m 7,9 C 8,3 C 3,2 km/h (1 Bft) 100,00 %
19.10.2016 23:52 8,3 C 97 % 1016,5 hPa 0,2 l/m 2,7 km/h (1 Bft) SO 134 0 min 0,000 mm 0,0 UV-I 0 W/m 7,9 C 8,3 C 4,8 km/h (1 Bft) 100,00 %
19.10.2016 23:54 8,3 C 97 % 1016,4 hPa 0,0 l/m 4,4 km/h (1 Bft) SO 126 0 min 0,000 mm 0,0 UV-I 0 W/m 7,9 C 8,3 C 6,4 km/h (2 Bft) 100,00 %
19.10.2016 23:56 8,2 C 97 % 1016,4 hPa 0,0 l/m 4,3 km/h (1 Bft) O-SO 111 0 min 0,000 mm 0,0 UV-I 0 W/m 7,8 C 8,2 C 6,4 km/h (2 Bft) 100,00 %
19.10.2016 23:58 8,2 C 97 % 1016,3 hPa 0,2 l/m 2,7 km/h (1 Bft) O-SO 111 0 min 0,000 mm 0,0 UV-I 0 W/m 7,8 C 8,2 C 4,8 km/h (1 Bft) 100,00 %
_ Min-Zeit 23:52 14:44 23:58 - 17:18 - - - - - - 23:56 11:42 19:38 22:58
Minimum _ 8,2 C 89 % 1016,3 hPa - 0,0 km/h (0 Bft) - - - - - - 7,8 C 5,6 C 0,0 km/h (0 Bft) 91,49 %
_ Max-Zeit 00:00 00:10 00:00 09:34 11:42 - - 00:00 12:00 14:12 14:28 00:10 00:00 10:44 00:16
Maximum _ 10,7 C 98 % 1020,5 hPa 0,2 l/m 14,4 km/h
SW (3 Bft)
- - 0 min 0,051 mm 0,6 UV-I 147 W/m 10,3 C 10,7 C 27,4 km/h
S-SO (4 Bft)
100,00 %
Durchschnitt _ 9,6 C 96 % 1017,9 hPa #7,4 l/m 4,4 km/h (1 Bft) S-SW - #0 min. #0,305 mm 0,4 UV-I 57 W/m 8,9 C 9,2 C 7,4 km/h (2 Bft) 98,66 %